Latitude: N 50° 09' 49" Longitude: W 05° 11' 53" Elevation: 168m ASL

There are 7 visitors online

Adverts

<- Previous Day | Today | Next Day ->

All Data for 09 February 2018

Time
A - D
Temp
A - D
Dew Point
A - D
Humidity
A - D
Pressure
A - D
Wind
A - D
Wind Dir Gust
A - D
Rain Rate
A - D
Rain Total
21:29 2.2 0.3 87 1020.7 1.6 SE 1.6 0.0 0.9
21:30 2.2 0.3 87 1020.7 0.7 SE 1.6 0.0 0.9
21:31 2.2 0.3 87 1020.7 0.7 SE 1.6 0.0 0.9
21:32 2.2 0.3 87 1020.6 0.7 SE 1.6 0.0 0.9
21:33 2.2 0.3 87 1020.7 1.6 SE 1.6 0.0 0.9
21:25 2.3 0.4 87 1020.7 0.0 SE 0.7 0.0 0.9
21:27 2.3 0.4 87 1020.6 1.6 SE 1.6 0.0 0.9
21:28 2.3 0.4 87 1020.7 1.6 SE 1.6 0.0 0.9
21:34 2.2 0.4 88 1020.6 0.7 SE 1.6 0.0 0.9
21:35 2.2 0.4 88 1020.6 0.0 SE 1.6 0.0 0.9
21:37 2.2 0.4 88 1020.6 0.7 SE 1.6 0.0 0.9
21:38 2.2 0.4 88 1020.7 0.7 SE 1.6 0.0 0.9
21:39 2.2 0.4 88 1020.7 0.7 SE 1.6 0.0 0.9
21:40 2.2 0.4 88 1020.7 0.7 SE 1.6 0.0 0.9
21:41 2.2 0.4 88 1020.5 0.7 SE 1.6 0.0 0.9
21:42 2.2 0.4 88 1020.6 0.7 SE 1.6 0.0 0.9
21:43 2.2 0.4 88 1020.4 0.7 SE 1.6 0.0 0.9
21:44 2.2 0.4 88 1020.5 0.7 SE 1.6 0.0 0.9
21:45 2.2 0.4 88 1020.5 0.7 SE 1.6 0.0 0.9
21:46 2.2 0.4 88 1020.5 1.6 SE 1.6 0.0 0.9
21:48 2.2 0.4 88 1020.6 0.7 SE 1.6 0.0 0.9
21:49 2.2 0.4 88 1020.6 0.7 SE 1.6 0.0 0.9
21:22 2.4 0.5 87 1021.0 0.0 SE 1.6 0.0 0.9
21:23 2.4 0.5 87 1020.7 0.7 SE 1.6 0.0 0.9
21:24 2.4 0.5 87 1020.7 0.0 SE 1.6 0.0 0.9
22:06 2.1 0.5 89 1020.4 0.7 S 4.5 0.0 0.9
23:22 1.8 0.5 91 1020.6 1.6 S 2.2 0.0 0.9
23:25 1.8 0.5 91 1020.4 1.6 S 2.2 0.0 0.9
23:26 1.8 0.5 91 1020.6 1.6 S 2.2 0.0 0.9
23:27 1.8 0.5 91 1020.5 1.6 S 2.2 0.0 0.9
23:28 1.8 0.5 91 1020.6 3.1 SW 3.1 0.0 0.9
21:19 2.5 0.6 87 1020.8 0.0 SE 1.6 0.0 0.9
21:20 2.5 0.6 87 1020.9 0.7 SE 1.6 0.0 0.9
21:21 2.5 0.6 87 1020.8 0.7 SE 1.6 0.0 0.9
21:50 2.2 0.6 89 1020.5 2.2 SE 2.2 0.0 0.9
21:51 2.2 0.6 89 1020.6 2.2 SE 2.2 0.0 0.9
21:52 2.2 0.6 89 1020.6 1.6 SE 2.2 0.0 0.9
21:53 2.2 0.6 89 1020.5 2.2 SE 2.2 0.0 0.9
21:54 2.2 0.6 89 1020.5 3.1 SE 3.1 0.0 0.9
21:55 2.2 0.6 89 1020.4 0.7 SE 3.1 0.0 0.9
21:57 2.2 0.6 89 1020.6 1.6 SE 3.1 0.0 0.9
21:58 2.2 0.6 89 1020.5 3.1 SE 3.1 0.0 0.9
21:59 2.2 0.6 89 1020.6 3.1 SE 3.1 0.0 0.9
22:00 2.2 0.6 89 1020.5 4.5 SE 4.5 0.0 0.9
22:01 2.2 0.6 89 1020.6 4.5 SE 4.5 0.0 0.9
22:02 2.2 0.6 89 1020.5 4.5 SE 4.5 0.0 0.9
22:03 2.2 0.6 89 1020.5 4.5 SE 4.5 0.0 0.9
22:04 2.2 0.6 89 1020.5 4.5 SE 4.5 0.0 0.9
22:07 2.2 0.6 89 1020.3 1.6 S 4.5 0.0 0.9
22:08 2.2 0.6 89 1020.3 3.1 S 4.5 0.0 0.9
22:09 2.2 0.6 89 1020.4 2.2 S 4.5 0.0 0.9
22:10 2.2 0.6 89 1020.5 0.7 S 4.5 0.0 0.9
22:11 2.2 0.6 89 1020.4 0.7 S 4.5 0.0 0.9
22:13 2.2 0.6 89 1020.2 0.7 S 4.5 0.0 0.9
23:03 2.1 0.6 90 1020.4 2.2 SW 4.5 0.0 0.9
23:04 2.1 0.6 90 1020.5 2.2 SW 4.5 0.0 0.9
23:15 1.9 0.6 91 1020.8 1.6 S 2.2 0.0 0.9
23:17 1.9 0.6 91 1020.7 0.0 S 2.2 0.0 0.9
23:18 1.9 0.6 91 1020.7 0.7 S 2.2 0.0 0.9
23:19 1.9 0.6 91 1020.7 0.7 S 2.2 0.0 0.9
23:20 1.9 0.6 91 1020.7 0.7 S 2.2 0.0 0.9
23:21 1.9 0.6 91 1020.6 1.6 S 2.2 0.0 0.9
23:24 1.9 0.6 91 1020.6 1.6 S 2.2 0.0 0.9
23:30 1.8 0.6 92 1020.6 3.1 S 3.1 0.0 0.9
23:31 1.8 0.6 92 1020.7 3.8 SW 3.8 0.0 0.9
23:32 1.8 0.6 92 1020.6 3.1 S 3.8 0.0 0.9
23:33 1.8 0.6 92 1020.8 3.1 S 3.8 0.0 0.9
23:34 1.8 0.6 92 1020.7 3.1 S 3.8 0.0 0.9
23:35 1.8 0.6 92 1020.6 3.8 S 3.8 0.0 0.9
23:36 1.8 0.6 92 1020.6 3.8 S 3.8 0.0 0.9
23:37 1.8 0.6 92 1020.6 2.2 S 3.8 0.0 0.9
23:38 1.8 0.6 92 1020.3 3.1 S 3.8 0.0 0.9
23:40 1.8 0.6 92 1020.3 2.2 S 3.8 0.0 0.9
23:41 1.8 0.6 92 1020.4 2.2 S 3.8 0.0 0.9
23:42 1.8 0.6 92 1020.2 2.2 S 3.8 0.0 0.9
23:43 1.8 0.6 92 1020.2 2.2 S 3.8 0.0 0.9
23:44 1.8 0.6 92 1020.4 1.6 S 3.8 0.0 0.9
23:45 1.8 0.6 92 1020.5 1.6 S 3.8 0.0 0.9
23:46 1.8 0.6 92 1020.5 1.6 S 3.8 0.0 0.9
23:48 1.8 0.6 92 1020.3 1.6 S 3.1 0.0 0.9
21:15 2.6 0.7 87 1020.8 0.7 SE 1.6 0.0 0.9
21:16 2.6 0.7 87 1020.8 0.7 SE 1.6 0.0 0.9
21:17 2.6 0.7 87 1020.8 0.7 SE 1.6 0.0 0.9
22:15 2.3 0.7 89 1020.3 1.6 S 4.5 0.0 0.9
22:17 2.3 0.7 89 1020.4 2.2 S 3.1 0.0 0.9
22:55 2.2 0.7 90 1020.3 2.2 S 2.2 0.0 0.9
22:56 2.2 0.7 90 1020.3 1.6 S 2.2 0.0 0.9
22:57 2.2 0.7 90 1020.3 2.2 S 2.2 0.0 0.9
22:58 2.2 0.7 90 1020.2 2.2 S 2.2 0.0 0.9
22:59 2.2 0.7 90 1020.5 4.5 S 4.5 0.0 0.9
23:01 2.2 0.7 90 1020.5 3.1 SW 4.5 0.0 0.9
23:02 2.2 0.7 90 1020.5 3.1 SW 4.5 0.0 0.9
23:09 2.0 0.7 91 1020.6 2.2 S 4.5 0.0 0.9
23:10 2.0 0.7 91 1020.7 2.2 S 4.5 0.0 0.9
23:11 2.0 0.7 91 1020.7 1.6 S 3.1 0.0 0.9
23:12 2.0 0.7 91 1020.7 1.6 S 3.1 0.0 0.9
23:13 2.0 0.7 91 1020.8 1.6 S 2.2 0.0 0.9
23:14 2.0 0.7 91 1020.7 0.7 S 2.2 0.0 0.9
20:53 2.9 0.8 86 1020.7 0.7 SW 3.1 0.0 0.9
20:54 2.9 0.8 86 1020.8 0.7 SW 3.1 0.0 0.9
20:55 2.9 0.8 86 1020.6 0.7 SW 3.1 0.0 0.9
20:56 2.9 0.8 86 1020.6 0.7 SW 3.1 0.0 0.9
20:58 2.9 0.8 86 1020.7 0.7 SW 3.1 0.0 0.9
21:11 2.7 0.8 87 1020.9 0.7 SW 1.6 0.0 0.9
21:12 2.7 0.8 87 1020.8 0.7 SW 1.6 0.0 0.9
21:13 2.7 0.8 87 1020.9 1.6 SW 1.6 0.0 0.9
21:14 2.7 0.8 87 1020.9 1.6 SE 1.6 0.0 0.9
22:18 2.3 0.8 90 1020.3 2.2 S 2.2 0.0 0.9
22:20 2.3 0.8 90 1020.3 3.8 S 3.8 0.0 0.9
22:21 2.3 0.8 90 1020.3 2.2 S 3.8 0.0 0.9
22:46 2.3 0.8 90 1020.3 1.6 S 4.5 0.0 0.9
22:47 2.3 0.8 90 1020.3 2.2 S 3.1 0.0 0.9
22:48 2.3 0.8 90 1020.2 2.2 S 3.1 0.0 0.9
22:49 2.3 0.8 90 1020.3 1.6 S 3.1 0.0 0.9
22:51 2.3 0.8 90 1020.3 1.6 S 2.2 0.0 0.9
22:52 2.3 0.8 90 1020.3 2.2 S 2.2 0.0 0.9
22:53 2.3 0.8 90 1020.4 2.2 S 2.2 0.0 0.9
23:05 2.1 0.8 91 1020.5 1.6 SW 4.5 0.0 0.9
23:06 2.1 0.8 91 1020.6 2.2 S 4.5 0.0 0.9
23:07 2.1 0.8 91 1020.6 1.6 S 4.5 0.0 0.9
23:49 1.8 0.8 93 1020.3 1.6 S 2.2 0.0 0.9
23:50 1.8 0.8 93 1020.3 1.6 S 2.2 0.0 0.9
20:47 3.0 0.9 86 1020.8 2.2 SW 3.1 0.0 0.9
20:48 3.0 0.9 86 1020.7 3.1 SW 3.1 0.0 0.9
20:49 3.0 0.9 86 1020.7 3.1 SW 3.1 0.0 0.9
20:50 3.0 0.9 86 1020.6 1.6 SW 3.1 0.0 0.9
20:51 3.0 0.9 86 1020.7 1.6 SW 3.1 0.0 0.9
20:52 3.0 0.9 86 1020.7 1.6 SW 3.1 0.0 0.9
21:08 2.8 0.9 87 1020.7 1.6 SW 1.6 0.0 0.9
21:09 2.8 0.9 87 1020.7 0.7 SW 1.6 0.0 0.9
21:10 2.8 0.9 87 1020.9 0.7 SW 1.6 0.0 0.9
22:23 2.4 0.9 90 1020.2 3.1 S 3.8 0.0 0.9
22:25 2.4 0.9 90 1020.2 2.2 S 3.8 0.0 0.9
22:26 2.4 0.9 90 1020.2 2.2 S 3.8 0.0 0.9
22:29 2.4 0.9 90 1020.1 2.2 S 3.8 0.0 0.9
22:31 2.4 0.9 90 1020.0 4.5 SE 4.5 0.0 0.9
22:32 2.4 0.9 90 1020.0 1.6 SE 4.5 0.0 0.9
22:33 2.4 0.9 90 1020.0 2.2 SE 4.5 0.0 0.9
22:34 2.4 0.9 90 1020.1 3.8 SE 4.5 0.0 0.9
22:35 2.4 0.9 90 1020.1 4.5 NW 4.5 0.0 0.9
22:37 2.4 0.9 90 1020.2 4.5 S 4.5 0.0 0.9
22:38 2.4 0.9 90 1020.2 3.1 S 4.5 0.0 0.9
22:40 2.4 0.9 90 1020.2 3.1 S 4.5 0.0 0.9
22:41 2.4 0.9 90 1020.2 1.6 S 4.5 0.0 0.9
22:42 2.4 0.9 90 1020.2 1.6 S 4.5 0.0 0.9
22:43 2.4 0.9 90 1020.4 2.2 S 4.5 0.0 0.9
22:45 2.4 0.9 90 1020.3 1.6 S 4.5 0.0 0.9
23:51 1.9 0.9 93 1020.3 3.1 SE 3.1 0.0 0.9
23:52 1.9 0.9 93 1020.1 2.2 SE 3.1 0.0 0.9
23:53 1.9 0.9 93 1020.0 1.6 SE 3.1 0.0 0.9
23:54 1.9 0.9 93 1020.1 1.6 SE 3.1 0.0 0.9
20:31 3.3 1.0 85 1020.8 1.6 SW 2.2 0.0 0.9
20:33 3.3 1.0 85 1020.8 1.6 SW 2.2 0.0 0.9
20:34 3.3 1.0 85 1020.8 2.2 SW 2.2 0.0 0.9
20:41 3.1 1.0 86 1020.5 1.6 SW 3.1 0.0 0.9
20:42 3.1 1.0 86 1020.6 3.1 SW 3.1 0.0 0.9
20:43 3.1 1.0 86 1020.6 2.2 SW 3.1 0.0 0.9
20:44 3.1 1.0 86 1020.6 2.2 SW 3.1 0.0 0.9
20:45 3.1 1.0 86 1020.8 1.6 SW 3.1 0.0 0.9
20:59 2.9 1.0 87 1020.8 0.7 SW 2.2 0.0 0.9
21:00 2.9 1.0 87 1020.7 0.7 SW 1.6 0.0 0.9
21:01 2.9 1.0 87 1020.7 0.7 SW 1.6 0.0 0.9
21:02 2.9 1.0 87 1020.6 0.7 SW 1.6 0.0 0.9
21:03 2.9 1.0 87 1020.7 0.7 SW 0.7 0.0 0.9
21:04 2.9 1.0 87 1020.7 0.7 SW 0.7 0.0 0.9
21:05 2.9 1.0 87 1020.8 0.7 SW 0.7 0.0 0.9
21:06 2.9 1.0 87 1020.8 0.7 SW 0.7 0.0 0.9
23:56 2.0 1.0 93 1019.8 1.6 SE 3.1 0.0 0.9
23:57 2.0 1.0 93 1019.8 1.6 SE 3.1 0.0 0.9
20:22 3.4 1.1 85 1020.7 1.6 SW 5.4 0.0 0.9
20:24 3.4 1.1 85 1020.7 1.6 SW 5.4 0.0 0.9
20:25 3.4 1.1 85 1020.7 1.6 SW 5.4 0.0 0.9
20:27 3.4 1.1 85 1020.8 1.6 SW 3.8 0.0 0.9
20:29 3.4 1.1 85 1020.8 1.6 SW 3.8 0.0 0.9
20:37 3.2 1.1 86 1020.8 1.6 SW 3.1 0.0 0.9
20:38 3.2 1.1 86 1020.7 2.2 SW 3.1 0.0 0.9
20:39 3.2 1.1 86 1020.7 3.1 SW 3.1 0.0 0.9
20:40 3.2 1.1 86 1020.8 2.2 SW 3.1 0.0 0.9
23:59 2.1 1.1 93 1019.6 1.6 SE 3.1 0.0 0.9
20:07 3.5 1.2 85 1020.5 3.8 SW 4.5 0.0 0.9
20:09 3.5 1.2 85 1020.6 3.8 SW 4.5 0.0 0.9
20:10 3.5 1.2 85 1020.6 5.4 W 5.4 0.0 0.9
20:12 3.5 1.2 85 1020.5 5.4 SW 5.4 0.0 0.9
20:13 3.5 1.2 85 1020.7 3.8 SW 5.4 0.0 0.9
20:15 3.5 1.2 85 1020.7 4.5 SW 5.4 0.0 0.9
20:16 3.5 1.2 85 1020.6 3.8 W 5.4 0.0 0.9
20:18 3.5 1.2 85 1020.5 3.1 W 5.4 0.0 0.9
20:19 3.5 1.2 85 1020.7 3.8 SW 5.4 0.0 0.9
20:21 3.5 1.2 85 1020.6 2.2 SW 5.4 0.0 0.9
20:32 3.3 1.2 86 1020.8 1.6 SW 2.2 0.0 0.9
20:36 3.3 1.2 86 1020.8 3.1 SW 3.1 0.0 0.9
18:58 3.8 1.3 84 1020.5 4.5 SW 6.0 0.0 0.9
19:05 3.8 1.3 84 1020.4 4.5 W 6.0 0.0 0.9
19:06 3.8 1.3 84 1020.4 4.5 NW 6.0 0.0 0.9
19:08 3.8 1.3 84 1020.3 4.5 W 6.0 0.0 0.9
19:09 3.8 1.3 84 1020.5 5.4 W 6.0 0.0 0.9
19:10 3.8 1.3 84 1020.5 4.5 W 6.0 0.0 0.9
19:11 3.8 1.3 84 1020.4 3.8 W 6.0 0.0 0.9
19:12 3.8 1.3 84 1020.5 4.5 SW 6.0 0.0 0.9
19:13 3.8 1.3 84 1020.4 6.0 W 6.0 0.0 0.9
19:15 3.8 1.3 84 1020.5 6.9 SW 6.9 0.0 0.9
19:16 3.8 1.3 84 1020.4 6.9 N 6.9 0.0 0.9
19:17 3.8 1.3 84 1020.4 7.6 W 7.6 0.0 0.9
19:18 3.8 1.3 84 1020.5 8.3 SW 9.2 0.0 0.9
19:19 3.8 1.3 84 1020.3 4.5 SW 9.2 0.0 0.9
19:20 3.8 1.3 84 1020.3 6.0 SW 9.2 0.0 0.9
19:21 3.8 1.3 84 1020.4 4.5 W 9.2 0.0 0.9
19:23 3.8 1.3 84 1020.5 6.9 SW 9.2 0.0 0.9
19:24 3.8 1.3 84 1020.3 6.0 W 9.2 0.0 0.9
19:25 3.8 1.3 84 1020.4 3.8 SW 9.2 0.0 0.9
19:26 3.8 1.3 84 1020.4 5.4 W 9.2 0.0 0.9
19:27 3.8 1.3 84 1020.5 5.4 W 9.2 0.0 0.9
19:28 3.8 1.3 84 1020.6 4.5 W 8.3 0.0 0.9
19:30 3.8 1.3 84 1020.6 2.2 W 7.6 0.0 0.9
19:31 3.8 1.3 84 1020.6 3.1 W 7.6 0.0 0.9
19:32 3.8 1.3 84 1020.6 3.8 W 7.6 0.0 0.9
19:33 3.8 1.3 84 1020.7 3.8 W 6.9 0.0 0.9
19:34 3.8 1.3 84 1020.7 3.1 W 6.9 0.0 0.9
19:35 3.8 1.3 84 1020.7 4.5 W 6.9 0.0 0.9
19:36 3.8 1.3 84 1020.7 4.5 W 6.9 0.0 0.9
19:38 3.7 1.3 84 1020.6 5.4 W 6.9 0.0 0.9
19:39 3.7 1.3 84 1020.5 4.5 W 5.4 0.0 0.9
19:40 3.7 1.3 84 1020.6 5.4 SW 5.4 0.0 0.9
19:41 3.7 1.3 84 1020.6 4.5 SW 5.4 0.0 0.9
19:42 3.7 1.3 84 1020.7 4.5 W 5.4 0.0 0.9
19:43 3.7 1.3 84 1020.6 5.4 SW 5.4 0.0 0.9
19:51 3.6 1.3 85 1020.7 3.8 SW 5.4 0.0 0.9
19:53 3.6 1.3 85 1020.5 3.8 W 5.4 0.0 0.9
19:54 3.6 1.3 85 1020.5 3.8 W 4.5 0.0 0.9
19:55 3.6 1.3 85 1020.6 3.8 W 4.5 0.0 0.9
19:56 3.6 1.3 85 1020.7 3.8 W 4.5 0.0 0.9
19:57 3.6 1.3 85 1020.7 4.5 SW 4.5 0.0 0.9
19:59 3.6 1.3 85 1020.5 3.8 SW 4.5 0.0 0.9
20:00 3.6 1.3 85 1020.7 3.8 SW 4.5 0.0 0.9
20:01 3.6 1.3 85 1020.5 3.8 SW 4.5 0.0 0.9
20:02 3.6 1.3 85 1020.6 3.8 SW 4.5 0.0 0.9
20:03 3.6 1.3 85 1020.5 3.8 SW 4.5 0.0 0.9
20:04 3.6 1.3 85 1020.6 3.8 SW 4.5 0.0 0.9
20:05 3.6 1.3 85 1020.6 3.8 SW 4.5 0.0 0.9
20:08 3.6 1.3 85 1020.6 4.5 SW 4.5 0.0 0.9
20:28 3.4 1.3 86 1020.7 1.6 SW 3.8 0.0 0.9
20:30 3.4 1.3 86 1020.7 1.6 SW 2.2 0.0 0.9
17:54 4.4 1.4 81 1019.9 7.6 SW 9.8 0.0 0.9
18:40 4.0 1.4 83 1020.2 2.2 W 6.0 0.0 0.9
18:42 4.0 1.4 83 1020.2 4.5 W 6.0 0.0 0.9
18:43 4.0 1.4 83 1020.2 5.4 NW 6.0 0.0 0.9
18:44 4.0 1.4 83 1020.3 5.4 W 6.0 0.0 0.9
18:47 3.9 1.4 84 1020.3 3.1 SW 6.0 0.0 0.9
18:49 3.9 1.4 84 1020.2 5.4 W 5.4 0.0 0.9
18:50 3.9 1.4 84 1020.3 4.5 SW 5.4 0.0 0.9
18:51 3.9 1.4 84 1020.3 3.8 SW 5.4 0.0 0.9
18:52 3.9 1.4 84 1020.3 3.1 W 5.4 0.0 0.9
18:53 3.9 1.4 84 1020.4 4.5 SW 5.4 0.0 0.9
18:54 3.9 1.4 84 1020.3 3.8 SW 5.4 0.0 0.9
18:55 3.9 1.4 84 1020.4 3.8 SW 5.4 0.0 0.9
18:56 3.9 1.4 84 1020.4 5.4 W 5.4 0.0 0.9
18:59 3.9 1.4 84 1020.5 3.8 SW 6.0 0.0 0.9
19:00 3.9 1.4 84 1020.4 3.8 SW 6.0 0.0 0.9
19:01 3.9 1.4 84 1020.5 3.8 SW 6.0 0.0 0.9
19:02 3.9 1.4 84 1020.3 3.8 SW 6.0 0.0 0.9
19:03 3.9 1.4 84 1020.4 3.8 SW 6.0 0.0 0.9
19:04 3.9 1.4 84 1020.4 3.8 SW 6.0 0.0 0.9
19:46 3.7 1.4 85 1020.6 3.8 W 5.4 0.0 0.9
19:47 3.7 1.4 85 1020.6 3.8 W 5.4 0.0 0.9
19:48 3.7 1.4 85 1020.7 3.8 N 5.4 0.0 0.9
19:49 3.7 1.4 85 1020.6 3.8 W 5.4 0.0 0.9
19:50 3.7 1.4 85 1020.6 3.8 SW 5.4 0.0 0.9
17:52 4.5 1.5 81 1019.9 5.4 NW 9.8 0.0 0.9
17:53 4.5 1.5 81 1019.8 7.6 W 9.8 0.0 0.9
18:09 4.3 1.5 82 1019.8 6.9 NW 9.8 0.0 0.9
18:10 4.3 1.5 82 1019.9 6.0 W 9.8 0.0 0.9
18:12 4.3 1.5 82 1019.8 5.4 W 9.8 0.0 0.9
18:13 4.3 1.5 82 1019.8 4.5 SW 9.8 0.0 0.9
18:15 4.3 1.5 82 1019.9 6.0 W 9.8 0.0 0.9
18:16 4.3 1.5 82 1020.0 3.8 W 9.8 0.0 0.9
18:32 4.1 1.5 83 1020.0 5.4 SW 6.9 0.0 0.9
18:33 4.1 1.5 83 1020.1 5.4 SW 6.9 0.0 0.9
18:35 4.1 1.5 83 1020.1 4.5 SW 6.0 0.0 0.9
18:36 4.1 1.5 83 1020.1 4.5 SW 6.0 0.0 0.9
18:37 4.1 1.5 83 1020.1 4.5 W 6.0 0.0 0.9
18:38 4.1 1.5 83 1020.2 4.5 W 6.0 0.0 0.9
18:39 4.1 1.5 83 1020.2 5.4 SW 6.0 0.0 0.9
18:45 4.0 1.5 84 1020.4 3.8 SW 6.0 0.0 0.9
18:46 4.0 1.5 84 1020.3 3.8 SW 6.0 0.0 0.9
06:36 2.8 1.6 92 1012.7 14.5 NW 24.4 0.0 0.8
17:44 4.6 1.6 81 1019.6 3.1 W 9.8 0.0 0.9
17:45 4.6 1.6 81 1019.8 7.6 W 9.8 0.0 0.9
17:46 4.6 1.6 81 1019.5 9.8 W 9.8 0.0 0.9
17:48 4.6 1.6 81 1019.6 9.8 NW 9.8 0.0 0.9
17:49 4.6 1.6 81 1019.7 5.4 SW 9.8 0.0 0.9
17:50 4.6 1.6 81 1019.7 6.9 SW 9.8 0.0 0.9
17:58 4.4 1.6 82 1019.7 9.2 W 10.7 0.0 0.9
18:06 4.4 1.6 82 1019.8 6.9 W 10.7 0.0 0.9
18:07 4.4 1.6 82 1019.9 9.8 SW 9.8 0.0 0.9
18:08 4.4 1.6 82 1019.8 8.3 NW 9.8 0.0 0.9
18:23 4.2 1.6 83 1020.0 4.5 W 9.2 0.0 0.9
18:24 4.2 1.6 83 1020.1 5.4 SW 9.2 0.0 0.9
18:25 4.2 1.6 83 1019.9 6.0 W 9.2 0.0 0.9
18:26 4.2 1.6 83 1019.9 3.8 W 9.2 0.0 0.9
18:27 4.2 1.6 83 1020.0 5.4 W 9.2 0.0 0.9
18:29 4.2 1.6 83 1020.1 3.8 NW 9.2 0.0 0.9
18:30 4.2 1.6 83 1019.9 4.5 SW 6.9 0.0 0.9
18:31 4.2 1.6 83 1020.1 5.4 W 6.9 0.0 0.9
06:37 2.7 1.7 93 1012.5 13.6 NW 21.3 0.0 0.8
06:38 2.7 1.7 93 1012.6 14.5 NW 21.3 0.0 0.8
06:39 2.7 1.7 93 1012.5 13.0 W 21.3 0.0 0.8
06:40 2.7 1.7 93 1012.7 13.6 NW 20.6 0.0 0.8
06:41 2.7 1.7 93 1012.7 13.0 W 20.6 0.0 0.8
06:42 2.7 1.7 93 1012.2 22.1 W 22.1 0.0 0.8
06:49 2.9 1.7 92 1012.6 20.6 W 22.1 0.0 0.8
06:50 2.9 1.7 92 1012.6 24.4 NW 24.4 0.0 0.8
06:51 2.9 1.7 92 1012.8 22.1 NW 24.4 0.0 0.8
06:52 2.9 1.7 92 1012.7 13.6 W 24.4 0.0 0.8
08:03 3.2 1.7 90 1014.3 15.2 W 15.9 0.0 0.8
08:04 3.2 1.7 90 1014.2 15.2 W 15.9 0.0 0.8
17:05 5.2 1.7 78 1019.2 6.9 SW 13.6 0.0 0.9
17:06 5.2 1.7 78 1019.2 15.2 W 15.2 0.0 0.9
17:07 5.2 1.7 78 1019.1 9.8 W 15.2 0.0 0.9
17:28 4.9 1.7 80 1019.5 8.3 W 9.2 0.0 0.9
17:29 4.9 1.7 80 1019.4 6.0 W 9.2 0.0 0.9
17:31 4.9 1.7 80 1019.3 10.7 SE 10.7 0.0 0.9
17:41 4.7 1.7 81 1019.5 7.6 W 9.8 0.0 0.9
17:43 4.7 1.7 81 1019.5 4.5 NW 9.8 0.0 0.9
17:55 4.5 1.7 82 1019.8 6.9 SW 9.8 0.0 0.9
17:57 4.5 1.7 82 1019.9 10.7 W 10.7 0.0 0.9
17:59 4.5 1.7 82 1019.9 8.3 W 10.7 0.0 0.9
18:00 4.5 1.7 82 1019.7 8.3 W 10.7 0.0 0.9
18:01 4.5 1.7 82 1019.9 8.3 W 10.7 0.0 0.9
18:02 4.5 1.7 82 1019.9 8.3 W 10.7 0.0 0.9
18:04 4.5 1.7 82 1020.0 8.3 W 10.7 0.0 0.9
18:05 4.5 1.7 82 1020.0 8.3 W 10.7 0.0 0.9
18:18 4.3 1.7 83 1019.8 5.4 SW 8.3 0.0 0.9
18:19 4.3 1.7 83 1020.0 9.2 SW 9.2 0.0 0.9
18:21 4.3 1.7 83 1020.0 4.5 W 9.2 0.0 0.9
18:22 4.3 1.7 83 1019.9 6.0 SW 9.2 0.0 0.9
06:33 2.8 1.8 93 1012.6 15.2 SW 24.4 0.0 0.8
06:34 2.8 1.8 93 1012.7 13.6 W 24.4 0.0 0.8
06:35 2.8 1.8 93 1012.4 14.5 NW 24.4 0.0 0.8
06:43 2.8 1.8 93 1012.7 15.2 W 22.1 0.0 0.8
06:44 2.8 1.8 93 1012.8 13.0 W 22.1 0.0 0.8
06:46 2.8 1.8 93 1012.7 19.0 W 22.1 0.0 0.8
06:47 2.8 1.8 93 1012.7 17.4 SW 22.1 0.0 0.8
06:48 2.8 1.8 93 1012.7 19.0 W 22.1 0.0 0.8
06:53 3.0 1.8 92 1012.9 19.7 NW 24.4 0.0 0.8
06:54 3.0 1.8 92 1012.9 17.4 NW 24.4 0.0 0.8
06:55 3.0 1.8 92 1013.0 24.4 W 24.4 0.0 0.8
06:56 3.0 1.8 92 1013.1 20.6 S 24.4 0.0 0.8
06:57 3.0 1.8 92 1013.0 13.0 NW 24.4 0.0 0.8
07:04 3.1 1.8 91 1013.0 13.6 NW 24.4 0.0 0.8
07:05 3.1 1.8 91 1013.2 14.5 SW 24.4 0.0 0.8
07:06 3.1 1.8 91 1013.0 13.6 NW 21.3 0.0 0.8
07:07 3.1 1.8 91 1013.1 17.4 NW 21.3 0.0 0.8
07:08 3.1 1.8 91 1013.2 17.4 NW 21.3 0.0 0.8
07:09 3.1 1.8 91 1013.1 16.8 W 21.3 0.0 0.8
07:10 3.1 1.8 91 1013.3 8.3 NW 21.3 0.0 0.8
07:11 3.1 1.8 91 1013.2 15.9 NW 21.3 0.0 0.8
07:36 3.1 1.8 91 1013.8 10.7 W 19.0 0.0 0.8
07:37 3.1 1.8 91 1013.9 12.1 W 19.0 0.0 0.8
07:38 3.1 1.8 91 1013.7 12.1 W 19.0 0.0 0.8
07:39 3.1 1.8 91 1013.7 9.8 NW 17.4 0.0 0.8
07:40 3.1 1.8 91 1013.9 13.6 W 17.4 0.0 0.8
07:41 3.1 1.8 91 1013.8 15.2 NW 17.4 0.0 0.8
07:42 3.1 1.8 91 1013.8 12.1 W 17.4 0.0 0.8
07:43 3.1 1.8 91 1013.7 12.1 W 15.2 0.0 0.8
07:44 3.1 1.8 91 1014.0 9.8 NW 15.2 0.0 0.8
07:45 3.1 1.8 91 1013.8 9.8 NW 15.2 0.0 0.8
07:46 3.1 1.8 91 1014.1 10.7 NW 15.2 0.0 0.8
07:47 3.1 1.8 91 1014.0 19.7 W 19.7 0.0 0.8
07:48 3.1 1.8 91 1014.1 15.9 W 19.7 0.0 0.8
07:52 3.1 1.8 91 1014.2 19.0 W 19.7 0.0 0.8
07:53 3.1 1.8 91 1014.0 19.0 W 19.7 0.0 0.8
08:05 3.3 1.8 90 1014.2 17.4 NE 17.4 0.0 0.8
08:06 3.3 1.8 90 1014.4 17.4 NE 17.4 0.0 0.8
08:07 3.3 1.8 90 1014.3 17.4 NW 17.4 0.0 0.8
08:08 3.3 1.8 90 1014.3 15.2 NW 17.4 0.0 0.8
08:10 3.3 1.8 90 1014.3 10.7 SW 17.4 0.0 0.8
08:11 3.3 1.8 90 1014.5 18.3 NW 18.3 0.0 0.8
08:13 3.3 1.8 90 1014.6 11.4 W 18.3 0.0 0.8
08:14 3.3 1.8 90 1014.7 16.8 SW 18.3 0.0 0.8
08:16 3.3 1.8 90 1014.8 21.3 NW 21.3 0.0 0.8
08:17 3.3 1.8 90 1014.7 11.4 NW 21.3 0.0 0.8
08:18 3.3 1.8 90 1014.6 18.3 SW 21.3 0.0 0.8
08:19 3.3 1.8 90 1014.8 10.7 NW 21.3 0.0 0.8
08:20 3.3 1.8 90 1014.6 12.1 W 21.3 0.0 0.8
08:21 3.3 1.8 90 1014.7 12.1 W 21.3 0.0 0.8
08:22 3.3 1.8 90 1014.7 14.5 W 21.3 0.0 0.8
15:16 5.9 1.8 75 1018.5 10.7 NW 17.4 0.0 0.9
15:17 5.9 1.8 75 1018.7 7.6 NW 17.4 0.0 0.9
15:18 5.9 1.8 75 1018.4 15.9 W 17.4 0.0 0.9
15:19 5.9 1.8 75 1018.4 15.2 NW 17.4 0.0 0.9
17:08 5.1 1.8 79 1019.3 7.6 W 15.2 0.0 0.9
17:09 5.1 1.8 79 1019.4 7.6 W 15.2 0.0 0.9
17:10 5.1 1.8 79 1019.3 6.0 W 15.2 0.0 0.9
17:11 5.1 1.8 79 1019.3 11.4 N 15.2 0.0 0.9
17:13 5.1 1.8 79 1019.2 9.2 W 15.2 0.0 0.9
17:14 5.1 1.8 79 1019.3 7.6 W 15.2 0.0 0.9
17:15 5.1 1.8 79 1019.2 7.6 W 15.2 0.0 0.9
17:16 5.1 1.8 79 1019.3 6.9 W 11.4 0.0 0.9
17:18 5.0 1.8 80 1019.4 6.0 W 11.4 0.0 0.9
17:19 5.0 1.8 80 1019.3 7.6 W 11.4 0.0 0.9
17:20 5.0 1.8 80 1019.4 8.3 W 11.4 0.0 0.9
17:22 5.0 1.8 80 1019.4 6.9 SW 11.4 0.0 0.9
17:23 5.0 1.8 80 1019.3 8.3 SW 8.3 0.0 0.9
17:24 5.0 1.8 80 1019.4 9.2 W 9.2 0.0 0.9
17:26 5.0 1.8 80 1019.4 7.6 W 9.2 0.0 0.9
17:27 5.0 1.8 80 1019.3 6.9 W 9.2 0.0 0.9
17:37 4.8 1.8 81 1019.6 6.9 W 10.7 0.0 0.9
17:39 4.8 1.8 81 1019.5 7.6 W 10.7 0.0 0.9
17:40 4.8 1.8 81 1019.6 8.3 W 10.7 0.0 0.9
06:31 2.9 1.9 93 1012.5 15.2 W 24.4 0.0 0.8
06:32 2.9 1.9 93 1012.5 20.6 W 24.4 0.0 0.8
06:58 3.1 1.9 92 1013.1 13.6 NW 24.4 0.0 0.8
06:59 3.1 1.9 92 1013.0 18.3 WNW 24.4 0.0 0.8
07:00 3.1 1.9 92 1013.0 18.3 WNW 24.4 0.0 0.8
07:01 3.1 1.9 92 1013.0 14.5 NW 24.4 0.0 0.8
07:02 3.1 1.9 92 1012.8 18.3 NW 24.4 0.0 0.8
07:12 3.2 1.9 91 1013.2 13.6 WNW 21.3 0.0 0.8
07:13 3.2 1.9 91 1013.4 17.4 W 21.3 0.0 0.8
07:14 3.2 1.9 91 1013.1 15.9 W 21.3 0.0 0.8
07:15 3.2 1.9 91 1013.3 19.0 NW 19.0 0.0 0.8
07:16 3.2 1.9 91 1013.3 12.1 W 19.0 0.0 0.8
07:17 3.2 1.9 91 1013.2 12.1 WNW 19.0 0.0 0.8
07:18 3.2 1.9 91 1013.3 9.2 W 19.0 0.0 0.8
07:19 3.2 1.9 91 1013.4 9.8 W 19.0 0.0 0.8
07:21 3.2 1.9 91 1013.5 15.2 NW 19.0 0.0 0.8
07:22 3.2 1.9 91 1013.4 8.3 W 19.0 0.0 0.8
07:23 3.2 1.9 91 1013.5 9.2 SW 19.0 0.0 0.8
07:24 3.2 1.9 91 1013.3 11.4 SW 19.0 0.0 0.8
07:25 3.2 1.9 91 1013.6 16.8 W 16.8 0.0 0.8
07:26 3.2 1.9 91 1013.5 12.1 W 16.8 0.0 0.8
07:27 3.2 1.9 91 1013.6 13.6 NW 16.8 0.0 0.8
07:28 3.2 1.9 91 1013.6 19.0 NW 19.0 0.0 0.8
07:29 3.2 1.9 91 1013.6 17.4 NW 19.0 0.0 0.8
07:30 3.2 1.9 91 1013.6 15.9 NW 19.0 0.0 0.8
07:32 3.2 1.9 91 1013.7 17.4 NW 19.0 0.0 0.8
07:33 3.2 1.9 91 1013.6 12.1 W 19.0 0.0 0.8
07:34 3.2 1.9 91 1013.6 15.2 W 19.0 0.0 0.8
07:35 3.2 1.9 91 1013.7 13.6 E 19.0 0.0 0.8
07:49 3.2 1.9 91 1014.0 13.0 W 19.7 0.0 0.8
07:50 3.2 1.9 91 1014.1 13.0 W 19.7 0.0 0.8
07:51 3.2 1.9 91 1014.3 15.9 NW 19.7 0.0 0.8
07:54 3.2 1.9 91 1014.2 15.9 SW 19.7 0.0 0.8
07:55 3.2 1.9 91 1014.1 15.9 SW 19.7 0.0 0.8
07:56 3.2 1.9 91 1014.1 15.2 NW 19.7 0.0 0.8
07:57 3.2 1.9 91 1014.2 15.9 W 19.7 0.0 0.8
07:58 3.2 1.9 91 1014.1 15.2 W 19.0 0.0 0.8
07:59 3.2 1.9 91 1014.1 15.2 SW 19.0 0.0 0.8
08:00 3.2 1.9 91 1014.1 15.2 SW 19.0 0.0 0.8
08:01 3.2 1.9 91 1014.3 15.2 SW 19.0 0.0 0.8
08:02 3.2 1.9 91 1014.3 15.2 SW 19.0 0.0 0.8
08:31 3.4 1.9 90 1014.8 15.2 NW 24.4 0.0 0.8
08:32 3.4 1.9 90 1014.9 15.2 W 24.4 0.0 0.8
08:33 3.4 1.9 90 1014.9 15.9 W 24.4 0.0 0.8
08:34 3.4 1.9 90 1015.0 18.3 W 24.4 0.0 0.8
08:35 3.4 1.9 90 1014.9 14.5 W 24.4 0.0 0.8
08:36 3.4 1.9 90 1015.0 17.4 N 24.4 0.0 0.8
08:37 3.4 1.9 90 1015.0 13.6 W 24.4 0.0 0.8
08:38 3.4 1.9 90 1015.1 15.2 SW 21.3 0.0 0.8
08:40 3.4 1.9 90 1014.9 13.6 NW 21.3 0.0 0.8
09:04 3.7 1.9 88 1015.6 15.2 W 18.3 0.0 0.8
09:05 3.7 1.9 88 1015.5 13.6 NW 18.3 0.0 0.8
09:06 3.7 1.9 88 1015.6 17.4 NW 18.3 0.0 0.8
09:07 3.7 1.9 88 1015.5 14.5 W 18.3 0.0 0.8
09:08 3.7 1.9 88 1015.6 10.7 NW 18.3 0.0 0.8
15:13 6.0 1.9 75 1018.7 14.5 NW 15.9 0.0 0.9
15:15 6.0 1.9 75 1018.5 13.0 NW 17.4 0.0 0.9
16:58 5.4 1.9 78 1019.1 7.6 W 15.9 0.0 0.9
16:59 5.4 1.9 78 1019.1 7.6 SW 15.9 0.0 0.9
17:00 5.4 1.9 78 1019.2 7.6 SW 15.9 0.0 0.9
17:01 5.4 1.9 78 1019.2 7.6 SW 15.9 0.0 0.9
17:02 5.4 1.9 78 1019.2 7.6 SW 15.9 0.0 0.9
17:03 5.4 1.9 78 1019.2 7.6 SW 13.6 0.0 0.9
17:04 5.4 1.9 78 1019.2 7.6 SW 13.6 0.0 0.9
17:32 4.9 1.9 81 1019.4 9.2 SW 10.7 0.0 0.9
17:33 4.9 1.9 81 1019.4 6.0 W 10.7 0.0 0.9
17:35 4.9 1.9 81 1019.4 7.6 W 10.7 0.0 0.9
17:36 4.9 1.9 81 1019.5 7.6 N 10.7 0.0 0.9
06:26 3.0 2.0 93 1012.5 24.4 WNW 24.4 0.0 0.8
06:27 3.0 2.0 93 1012.4 18.3 NW 24.4 0.0 0.8
06:28 3.0 2.0 93 1012.2 19.7 NW 24.4 0.0 0.8
06:29 3.0 2.0 93 1012.4 21.3 NW 24.4 0.0 0.8
07:20 3.3 2.0 91 1013.4 9.8 W 19.0 0.0 0.8
08:23 3.3 2.0 91 1014.6 13.0 S 21.3 0.0 0.8
08:24 3.3 2.0 91 1014.9 12.1 NW 21.3 0.0 0.8
08:25 3.3 2.0 91 1014.8 16.8 W 21.3 0.0 0.8
08:26 3.3 2.0 91 1014.9 19.0 W 21.3 0.0 0.8
08:39 3.5 2.0 90 1015.1 13.6 W 21.3 0.0 0.8
08:41 3.5 2.0 90 1015.2 15.2 W 19.7 0.0 0.8
08:42 3.5 2.0 90 1015.2 15.9 WNW 19.7 0.0 0.8
08:43 3.5 2.0 90 1015.0 15.2 NW 19.7 0.0 0.8
08:44 3.5 2.0 90 1015.2 12.1 W 19.7 0.0 0.8
08:45 3.5 2.0 90 1015.0 15.2 NW 19.7 0.0 0.8
08:46 3.5 2.0 90 1015.1 14.5 W 19.7 0.0 0.8
08:47 3.5 2.0 90 1015.1 17.4 NW 17.4 0.0 0.8
08:48 3.5 2.0 90 1015.1 13.0 W 17.4 0.0 0.8
08:49 3.5 2.0 90 1015.1 13.6 W 17.4 0.0 0.8
08:50 3.5 2.0 90 1015.2 15.9 W 17.4 0.0 0.8
08:52 3.5 2.0 90 1015.4 13.0 NW 18.3 0.0 0.8
08:53 3.5 2.0 90 1015.2 17.4 W 18.3 0.0 0.8
08:55 3.6 2.0 89 1015.4 15.9 NW 18.3 0.0 0.8
08:56 3.6 2.0 89 1015.2 15.9 NW 18.3 0.0 0.8
08:57 3.6 2.0 89 1015.3 18.3 N 18.3 0.0 0.8
08:58 3.6 2.0 89 1015.3 17.4 W 18.3 0.0 0.8
08:59 3.6 2.0 89 1015.4 14.5 NW 18.3 0.0 0.8
09:00 3.6 2.0 89 1015.5 14.5 NW 18.3 0.0 0.8
09:01 3.6 2.0 89 1015.2 14.5 NW 18.3 0.0 0.8
09:02 3.6 2.0 89 1015.5 15.2 W 18.3 0.0 0.8
09:03 3.6 2.0 89 1015.3 15.2 W 18.3 0.0 0.8
09:09 3.8 2.0 88 1015.6 10.7 W 18.3 0.0 0.8
09:10 3.8 2.0 88 1015.7 13.0 W 18.3 0.0 0.8
14:59 6.3 2.0 74 1018.5 9.8 W 19.7 0.0 0.9
15:00 6.3 2.0 74 1018.5 9.8 W 19.7 0.0 0.9
15:01 6.3 2.0 74 1018.6 9.8 W 19.7 0.0 0.9
15:02 6.3 2.0 74 1018.6 9.8 W 19.7 0.0 0.9
15:03 6.3 2.0 74 1018.4 9.8 W 19.7 0.0 0.9
15:04 6.3 2.0 74 1018.5 9.8 W 19.7 0.0 0.9
15:05 6.1 2.0 75 1018.5 13.0 NW 16.8 0.0 0.9
15:06 6.1 2.0 75 1018.4 8.3 W 16.8 0.0 0.9
15:08 6.1 2.0 75 1018.4 12.1 SW 14.5 0.0 0.9
15:10 6.1 2.0 75 1018.6 11.4 W 14.5 0.0 0.9
15:11 6.1 2.0 75 1018.6 12.1 W 14.5 0.0 0.9
15:12 6.1 2.0 75 1018.6 13.0 W 14.5 0.0 0.9
15:20 5.9 2.0 76 1018.6 13.6 W 17.4 0.0 0.9
15:38 6.1 2.0 75 1018.8 13.6 W 20.6 0.0 0.9
15:39 6.1 2.0 75 1018.8 10.7 W 20.6 0.0 0.9
16:04 5.9 2.0 76 1018.7 13.0 NW 20.6 0.0 0.9
16:16 5.7 2.0 77 1018.8 13.0 W 15.2 0.0 0.9
16:17 5.7 2.0 77 1018.7 12.1 NW 15.2 0.0 0.9
16:19 5.7 2.0 77 1018.7 12.1 W 15.2 0.0 0.9
16:21 5.7 2.0 77 1018.7 13.6 W 15.2 0.0 0.9
16:22 5.7 2.0 77 1018.6 6.9 NW 15.9 0.0 0.9
16:54 5.5 2.0 78 1019.0 13.0 NW 15.9 0.0 0.9
16:55 5.5 2.0 78 1019.1 12.1 W 15.9 0.0 0.9
16:56 5.5 2.0 78 1019.2 13.6 W 15.9 0.0 0.9
16:57 5.5 2.0 78 1019.1 6.9 W 15.9 0.0 0.9
06:23 3.0 2.1 94 1012.5 16.8 NNW 22.1 0.0 0.8
06:25 3.0 2.1 94 1012.5 19.7 NW 20.6 0.0 0.8
08:27 3.4 2.1 91 1015.0 13.6 W 19.0 0.0 0.8
08:28 3.4 2.1 91 1014.7 24.4 W 24.4 0.0 0.8
08:29 3.4 2.1 91 1014.9 15.9 W 24.4 0.0 0.8
08:30 3.4 2.1 91 1014.9 18.3 W 24.4 0.0 0.8
08:54 3.6 2.1 90 1015.2 12.1 SW 18.3 0.0 0.8
09:11 3.9 2.1 88 1015.6 19.0 NW 19.0 0.0 0.8
09:12 3.9 2.1 88 1015.5 13.0 W 19.0 0.0 0.8
09:53 4.4 2.1 85 1016.0 16.8 W 19.0 0.0 0.8
11:25 5.8 2.1 77 1017.3 15.2 NW 19.0 0.0 0.8
12:20 6.2 2.1 75 1017.6 18.3 NW 20.6 0.0 0.8
12:23 6.0 2.1 76 1017.4 15.2 W 19.7 0.0 0.8
12:24 6.0 2.1 76 1017.6 18.3 W 19.7 0.0 0.8
12:25 6.0 2.1 76 1017.5 13.0 W 19.7 0.0 0.8
12:26 6.0 2.1 76 1017.6 12.1 NW 19.7 0.0 0.8
14:08 6.4 2.1 74 1018.0 8.3 NW 17.4 0.0 0.9
14:09 6.4 2.1 74 1018.0 14.5 NW 17.4 0.0 0.9
14:10 6.4 2.1 74 1018.0 14.5 NW 17.4 0.0 0.9
14:56 6.4 2.1 74 1018.4 14.5 W 19.7 0.0 0.9
14:57 6.4 2.1 74 1018.4 16.8 W 19.7 0.0 0.9
15:22 6.0 2.1 76 1018.7 13.6 W 17.4 0.0 0.9
15:35 6.2 2.1 75 1018.9 17.4 NW 20.6 0.0 0.9
15:36 6.2 2.1 75 1018.8 15.2 SW 20.6 0.0 0.9
15:46 6.0 2.1 76 1018.5 13.0 NW 16.8 0.0 0.9
15:47 6.0 2.1 76 1018.7 12.1 W 16.8 0.0 0.9
15:48 6.0 2.1 76 1018.7 12.1 SW 16.8 0.0 0.9
16:01 6.0 2.1 76 1018.5 15.9 NW 15.9 0.0 0.9
16:02 6.0 2.1 76 1018.7 20.6 W 20.6 0.0 0.9
16:03 6.0 2.1 76 1018.8 9.2 W 20.6 0.0 0.9
16:11 5.8 2.1 77 1018.7 13.6 NW 20.6 0.0 0.9
16:13 5.8 2.1 77 1018.9 13.6 W 14.5 0.0 0.9
16:14 5.8 2.1 77 1018.7 9.8 W 15.2 0.0 0.9
16:49 5.6 2.1 78 1019.0 5.4 SW 13.6 0.0 0.9
16:50 5.6 2.1 78 1019.1 8.3 SW 13.6 0.0 0.9
16:51 5.6 2.1 78 1019.0 9.2 N 13.6 0.0 0.9
16:53 5.6 2.1 78 1018.9 15.9 NW 15.9 0.0 0.9
06:21 3.1 2.2 94 1012.4 9.8 SE 22.1 0.0 0.8
06:22 3.1 2.2 94 1012.3 17.4 W 22.1 0.0 0.8
06:24 3.1 2.2 94 1012.4 17.4 W 20.6 0.0 0.8
09:13 4.0 2.2 88 1015.5 15.9 W 19.0 0.0 0.8
09:14 4.0 2.2 88 1015.6 14.5 W 19.0 0.0 0.8
09:15 4.0 2.2 88 1015.7 12.1 W 19.0 0.0 0.8
09:16 4.0 2.2 88 1015.7 13.0 W 19.0 0.0 0.8
09:34 4.3 2.2 86 1015.9 15.9 W 24.4 0.0 0.8
09:35 4.3 2.2 86 1016.0 17.4 SW 20.6 0.0 0.8
09:43 4.3 2.2 86 1015.7 11.4 NW 22.1 0.0 0.8
09:44 4.3 2.2 86 1015.9 15.9 W 22.1 0.0 0.8
09:46 4.3 2.2 86 1015.8 9.2 NW 22.1 0.0 0.8
09:49 4.3 2.2 86 1015.8 19.0 W 19.0 0.0 0.8
09:55 4.5 2.2 85 1016.1 13.0 NW 19.0 0.0 0.8
09:56 4.5 2.2 85 1016.1 15.9 NW 19.0 0.0 0.8
09:57 4.5 2.2 85 1016.1 9.8 N 19.0 0.0 0.8
10:49 5.4 2.2 80 1016.9 10.7 NW 25.9 0.0 0.8
11:07 5.7 2.2 78 1017.1 13.6 NW 19.7 0.0 0.8
11:13 5.7 2.2 78 1017.4 16.8 NW 19.7 0.0 0.8
11:14 5.7 2.2 78 1017.2 17.4 NW 19.7 0.0 0.8
11:17 5.7 2.2 78 1017.2 13.0 NW 19.7 0.0 0.8
12:18 6.3 2.2 75 1017.5 14.5 W 20.6 0.0 0.8
12:19 6.3 2.2 75 1017.6 13.0 NW 20.6 0.0 0.8
12:22 6.1 2.2 76 1017.6 15.9 W 19.7 0.0 0.8
14:07 6.5 2.2 74 1017.9 8.3 W 17.4 0.0 0.9
14:12 6.3 2.2 75 1017.9 10.7 NW 17.4 0.0 0.9
14:53 6.5 2.2 74 1018.4 19.0 NW 19.0 0.0 0.9
14:54 6.5 2.2 74 1018.5 19.7 W 19.7 0.0 0.9
14:55 6.5 2.2 74 1018.4 15.2 NW 19.7 0.0 0.9
15:07 6.1 2.2 76 1018.5 11.4 W 16.8 0.0 0.9
15:23 6.1 2.2 76 1018.6 17.4 W 17.4 0.0 0.9
15:24 6.1 2.2 76 1018.6 9.8 W 17.4 0.0 0.9
15:32 6.3 2.2 75 1018.7 15.2 SW 17.4 0.0 0.9
15:33 6.3 2.2 75 1018.7 20.6 NW 20.6 0.0 0.9
15:34 6.3 2.2 75 1018.8 13.0 W 20.6 0.0 0.9
15:40 6.1 2.2 76 1018.6 15.2 W 20.6 0.0 0.9
15:41 6.1 2.2 76 1018.7 14.5 NW 20.6 0.0 0.9
15:42 6.1 2.2 76 1018.7 12.1 W 20.6 0.0 0.9
15:43 6.1 2.2 76 1018.8 12.1 NW 20.6 0.0 0.9
15:44 6.1 2.2 76 1018.7 15.2 NW 17.4 0.0 0.9
15:45 6.1 2.2 76 1018.7 13.0 S 17.4 0.0 0.9
15:49 6.1 2.2 76 1018.6 10.7 NW 16.8 0.0 0.9
15:50 6.1 2.2 76 1018.6 11.4 SW 16.8 0.0 0.9
15:51 6.1 2.2 76 1018.7 12.1 W 16.8 0.0 0.9
15:54 6.1 2.2 76 1018.7 13.6 N 13.6 0.0 0.9
15:56 6.1 2.2 76 1018.7 13.0 W 13.6 0.0 0.9
15:57 6.1 2.2 76 1018.7 12.1 W 13.6 0.0 0.9
15:58 6.1 2.2 76 1018.6 15.9 NW 15.9 0.0 0.9
15:59 6.1 2.2 76 1018.7 13.0 NW 15.9 0.0 0.9
16:00 6.1 2.2 76 1018.7 13.0 NW 15.9 0.0 0.9
16:05 5.9 2.2 77 1018.8 10.7 W 20.6 0.0 0.9
16:06 5.9 2.2 77 1018.7 12.1 W 20.6 0.0 0.9
16:07 5.9 2.2 77 1018.7 11.4 W 20.6 0.0 0.9
16:08 5.9 2.2 77 1018.7 5.4 SW 20.6 0.0 0.9
16:10 5.9 2.2 77 1018.7 10.7 W 20.6 0.0 0.9
16:23 5.7 2.2 78 1018.7 10.7 SW 15.9 0.0 0.9
16:24 5.7 2.2 78 1018.7 9.2 W 15.9 0.0 0.9
16:45 5.7 2.2 78 1018.9 11.4 W 13.6 0.0 0.9
16:46 5.7 2.2 78 1019.0 13.6 W 13.6 0.0 0.9
16:47 5.7 2.2 78 1019.0 10.7 SW 13.6 0.0 0.9
16:48 5.7 2.2 78 1018.9 8.3 W 13.6 0.0 0.9
06:17 3.2 2.3 94 1012.4 15.2 W 22.1 0.0 0.8
06:18 3.2 2.3 94 1012.2 13.0 W 22.1 0.0 0.8
06:19 3.2 2.3 94 1012.4 14.5 W 22.1 0.0 0.8
06:20 3.2 2.3 94 1012.4 8.3 W 22.1 0.0 0.8
09:17 4.1 2.3 88 1015.5 19.7 WNW 19.7 0.0 0.8
09:18 4.1 2.3 88 1015.5 15.9 W 19.7 0.0 0.8
09:29 4.3 2.3 87 1015.5 16.8 NW 24.4 0.0 0.8
09:30 4.3 2.3 87 1015.7 19.7 NW 24.4 0.0 0.8
09:31 4.3 2.3 87 1015.9 18.3 W 24.4 0.0 0.8
09:33 4.3 2.3 87 1015.8 17.4 SW 24.4 0.0 0.8
09:37 4.3 2.3 87 1015.9 12.1 NW 19.7 0.0 0.8
09:38 4.4 2.3 86 1015.9 13.0 N 22.1 0.0 0.8
09:39 4.4 2.3 86 1016.0 15.2 NW 22.1 0.0 0.8
09:40 4.4 2.3 86 1015.9 14.5 W 22.1 0.0 0.8
09:42 4.4 2.3 86 1015.7 16.8 NW 22.1 0.0 0.8
09:47 4.4 2.3 86 1015.9 12.1 W 22.1 0.0 0.8
09:50 4.4 2.3 86 1016.0 19.0 W 19.0 0.0 0.8
09:52 4.4 2.3 86 1015.9 19.0 W 19.0 0.0 0.8
09:59 4.6 2.3 85 1016.0 13.6 W 19.0 0.0 0.8
10:00 4.6 2.3 85 1016.0 13.6 W 19.0 0.0 0.8
11:08 5.7 2.3 79 1017.1 11.4 W 19.7 0.0 0.8
11:09 5.7 2.3 79 1017.2 15.9 NW 19.7 0.0 0.8
11:10 5.7 2.3 79 1017.1 16.8 SW 19.7 0.0 0.8
11:11 5.7 2.3 79 1017.4 16.8 W 19.7 0.0 0.8
11:12 5.7 2.3 79 1017.2 19.7 W 19.7 0.0 0.8
11:16 5.8 2.3 78 1017.3 13.6 N 19.7 0.0 0.8
11:23 5.8 2.3 78 1017.4 15.9 W 18.3 0.0 0.8
11:24 5.8 2.3 78 1017.2 19.0 NW 19.0 0.0 0.8
11:26 5.8 2.3 78 1017.3 13.0 N 19.0 0.0 0.8
12:02 6.4 2.3 75 1017.4 14.5 W 20.6 0.0 0.8
12:16 6.4 2.3 75 1017.5 13.0 NW 20.6 0.0 0.8
12:42 6.6 2.3 74 1017.7 19.0 NW 20.6 0.0 0.8
12:56 6.2 2.3 76 1017.8 15.9 NW 19.7 0.0 0.8
12:59 6.0 2.3 77 1017.7 19.7 NW 19.7 0.0 0.8
13:00 6.0 2.3 77 1017.9 19.7 NW 19.7 0.0 0.8
13:01 6.0 2.3 77 1018.0 19.7 NW 19.7 0.0 0.8
13:56 6.8 2.3 73 1017.9 11.4 NW 20.6 0.0 0.9
14:06 6.6 2.3 74 1017.8 14.5 W 17.4 0.0 0.9
14:13 6.4 2.3 75 1018.1 16.8 NW 17.4 0.0 0.9
14:49 6.6 2.3 74 1018.4 18.3 NW 18.3 0.0 0.9
14:50 6.6 2.3 74 1018.5 15.2 NW 18.3 0.0 0.9
14:51 6.6 2.3 74 1018.4 10.7 NW 18.3 0.0 0.9
14:52 6.6 2.3 74 1018.4 15.9 NW 18.3 0.0 0.9
15:26 6.2 2.3 76 1018.5 14.5 W 17.4 0.0 0.9
15:52 6.2 2.3 76 1018.6 12.1 NW 15.2 0.0 0.9
15:53 6.2 2.3 76 1018.7 12.1 SW 15.2 0.0 0.9
16:25 5.8 2.3 78 1018.6 9.8 NW 15.9 0.0 0.9
16:26 5.8 2.3 78 1018.7 8.3 W 15.9 0.0 0.9
16:27 5.8 2.3 78 1018.7 10.7 W 15.9 0.0 0.9
16:28 5.8 2.3 78 1018.7 8.3 W 15.9 0.0 0.9
16:29 5.8 2.3 78 1018.7 9.2 NW 15.9 0.0 0.9
16:39 5.8 2.3 78 1019.0 8.3 W 14.5 0.0 0.9
16:40 5.8 2.3 78 1018.9 12.1 W 14.5 0.0 0.9
16:41 5.8 2.3 78 1018.8 11.4 NW 14.5 0.0 0.9
16:42 5.8 2.3 78 1018.9 12.1 NW 14.5 0.0 0.9
16:43 5.8 2.3 78 1018.9 13.6 NW 13.6 0.0 0.9
16:44 5.8 2.3 78 1019.1 13.6 W 13.6 0.0 0.9
06:16 3.3 2.4 94 1012.5 14.5 NW 22.1 0.0 0.8
09:20 4.2 2.4 88 1015.6 18.3 NW 19.7 0.0 0.8
09:21 4.2 2.4 88 1015.7 19.0 NW 19.7 0.0 0.8
09:22 4.2 2.4 88 1015.5 15.2 W 19.7 0.0 0.8
09:23 4.2 2.4 88 1015.7 12.1 W 19.7 0.0 0.8
09:24 4.2 2.4 88 1015.6 24.4 NW 24.4 0.0 0.8
10:01 4.7 2.4 85 1015.9 14.5 NW 19.0 0.0 0.8
10:17 4.7 2.4 85 1016.3 10.7 W 19.0 0.0 0.8
10:19 4.7 2.4 85 1016.4 15.9 NW 19.0 0.0 0.8
10:20 4.7 2.4 85 1016.4 15.2 NW 19.0 0.0 0.8
10:23 4.9 2.4 84 1016.3 16.8 N 20.6 0.0 0.8
10:24 4.9 2.4 84 1016.3 16.8 N 20.6 0.0 0.8
10:25 4.9 2.4 84 1016.6 15.2 W 20.6 0.0 0.8
10:46 5.4 2.4 81 1016.9 14.5 W 25.9 0.0 0.8
10:47 5.4 2.4 81 1016.9 12.1 W 25.9 0.0 0.8
10:56 5.6 2.4 80 1016.8 18.3 W 18.3 0.0 0.8
10:57 5.6 2.4 80 1017.0 17.4 NW 18.3 0.0 0.8
10:59 5.6 2.4 80 1017.0 16.8 NW 18.3 0.0 0.8
11:04 5.8 2.4 79 1017.0 19.7 N 19.7 0.0 0.8
11:05 5.8 2.4 79 1017.2 13.6 W 19.7 0.0 0.8
11:06 5.8 2.4 79 1017.1 13.6 NW 19.7 0.0 0.8
11:18 5.8 2.4 79 1017.3 14.5 NW 19.7 0.0 0.8
11:20 5.8 2.4 79 1017.3 15.9 W 19.7 0.0 0.8
11:21 5.8 2.4 79 1017.2 9.2 NW 19.7 0.0 0.8
11:22 5.8 2.4 79 1017.3 16.8 W 19.7 0.0 0.8
11:27 5.8 2.4 79 1017.5 9.8 NW 19.0 0.0 0.8
11:47 6.3 2.4 76 1017.4 13.0 W 19.7 0.0 0.8
11:48 6.3 2.4 76 1017.5 19.7 W 19.7 0.0 0.8
11:49 6.3 2.4 76 1017.5 14.5 NW 19.7 0.0 0.8
11:50 6.3 2.4 76 1017.6 16.8 W 19.7 0.0 0.8
11:51 6.3 2.4 76 1017.5 13.0 W 19.7 0.0 0.8
11:52 6.3 2.4 76 1017.4 15.9 NW 19.7 0.0 0.8
11:58 6.3 2.4 76 1017.3 14.5 W 20.6 0.0 0.8
11:59 6.3 2.4 76 1017.5 15.9 N 20.6 0.0 0.8
12:00 6.3 2.4 76 1017.5 15.9 N 20.6 0.0 0.8
12:01 6.3 2.4 76 1017.5 13.6 W 20.6 0.0 0.8
12:15 6.5 2.4 75 1017.6 13.6 W 20.6 0.0 0.8
12:30 6.3 2.4 76 1017.7 18.3 NW 19.7 0.0 0.8
12:31 6.3 2.4 76 1017.9 23.5 W 23.5 0.0 0.8
12:33 6.3 2.4 76 1017.7 13.6 W 23.5 0.0 0.8
12:34 6.3 2.4 76 1017.6 15.2 SW 23.5 0.0 0.8
12:35 6.3 2.4 76 1017.6 17.4 NW 23.5 0.0 0.8
12:37 6.3 2.4 76 1017.8 15.9 NW 23.5 0.0 0.8
12:39 6.5 2.4 75 1017.7 15.9 NW 23.5 0.0 0.8
12:43 6.7 2.4 74 1017.7 20.6 SW 20.6 0.0 0.8
12:44 6.7 2.4 74 1017.5 19.0 NW 20.6 0.0 0.8
12:55 6.3 2.4 76 1017.8 19.7 NW 19.7 0.0 0.8
12:57 6.1 2.4 77 1017.8 15.2 NW 19.7 0.0 0.8
13:55 6.7 2.4 74 1017.8 15.9 W 20.6 0.0 0.9
14:29 6.5 2.4 75 1018.2 16.8 SW 19.0 0.0 0.9
14:30 6.5 2.4 75 1018.2 17.4 W 19.0 0.0 0.9
14:32 6.5 2.4 75 1018.2 12.1 NW 18.3 0.0 0.9
14:33 6.5 2.4 75 1018.2 16.8 W 18.3 0.0 0.9
14:47 6.7 2.4 74 1018.5 13.6 NW 17.4 0.0 0.9
14:48 6.7 2.4 74 1018.4 16.8 W 17.4 0.0 0.9
15:25 6.1 2.4 77 1018.7 10.7 NW 17.4 0.0 0.9
15:27 6.3 2.4 76 1018.7 17.4 N 17.4 0.0 0.9
15:28 6.3 2.4 76 1018.7 13.6 W 17.4 0.0 0.9
15:29 6.3 2.4 76 1018.6 13.6 NW 17.4 0.0 0.9
15:30 6.3 2.4 76 1018.6 16.8 NW 17.4 0.0 0.9
15:31 6.3 2.4 76 1018.6 17.4 NW 17.4 0.0 0.9
16:30 5.9 2.4 78 1018.7 13.6 W 15.9 0.0 0.9
16:31 5.9 2.4 78 1018.8 7.6 W 15.9 0.0 0.9
16:32 5.9 2.4 78 1018.7 11.4 SW 14.5 0.0 0.9
16:33 5.9 2.4 78 1018.7 10.7 W 14.5 0.0 0.9
16:35 5.9 2.4 78 1018.7 12.1 SW 14.5 0.0 0.9
16:36 5.9 2.4 78 1018.8 13.6 SW 14.5 0.0 0.9
16:38 5.9 2.4 78 1019.0 12.1 NW 14.5 0.0 0.9
06:10 3.2 2.5 95 1012.5 13.0 NW 21.3 0.0 0.8
09:25 4.3 2.5 88 1015.7 17.4 N 24.4 0.0 0.8
09:26 4.3 2.5 88 1015.7 20.6 W 24.4 0.0 0.8
09:27 4.3 2.5 88 1015.7 17.4 WNW 24.4 0.0 0.8
10:03 4.8 2.5 85 1016.0 13.0 W 16.8 0.0 0.8
10:05 4.8 2.5 85 1016.2 12.1 W 16.8 0.0 0.8
10:15 4.8 2.5 85 1016.4 14.5 NW 19.0 0.0 0.8
10:16 4.8 2.5 85 1016.2 14.5 W 19.0 0.0 0.8
10:21 4.8 2.5 85 1016.3 19.7 W 19.7 0.0 0.8
10:26 5.0 2.5 84 1016.5 15.9 W 20.6 0.0 0.8
10:27 5.0 2.5 84 1016.6 15.2 NW 20.6 0.0 0.8
10:50 5.5 2.5 81 1016.7 13.6 W 25.9 0.0 0.8
10:51 5.5 2.5 81 1016.8 15.2 W 25.9 0.0 0.8
10:58 5.7 2.5 80 1017.1 16.8 NW 18.3 0.0 0.8
11:19 5.9 2.5 79 1017.1 13.6 NW 19.7 0.0 0.8
11:28 5.9 2.5 79 1017.4 13.6 W 19.0 0.0 0.8
11:38 6.2 2.5 77 1017.4 13.6 NW 16.8 0.0 0.8
11:39 6.2 2.5 77 1017.6 13.0 NW 16.8 0.0 0.8
11:40 6.2 2.5 77 1017.3 10.7 SW 16.8 0.0 0.8
11:57 6.4 2.5 76 1017.4 18.3 N 20.6 0.0 0.8
12:03 6.4 2.5 76 1017.6 11.4 SW 20.6 0.0 0.8
12:04 6.4 2.5 76 1017.3 10.7 NW 20.6 0.0 0.8
12:13 6.6 2.5 75 1017.5 18.3 W 20.6 0.0 0.8
12:29 6.2 2.5 77 1017.7 18.3 W 19.7 0.0 0.8
12:32 6.4 2.5 76 1017.7 19.0 W 23.5 0.0 0.8
12:38 6.4 2.5 76 1017.7 15.2 NW 23.5 0.0 0.8
12:40 6.6 2.5 75 1017.7 19.0 W 23.5 0.0 0.8
12:41 6.6 2.5 75 1017.7 19.0 W 23.5 0.0 0.8
12:45 6.8 2.5 74 1017.7 10.7 NW 20.6 0.0 0.8
12:54 6.4 2.5 76 1017.7 17.4 NW 19.7 0.0 0.8
13:02 6.0 2.5 78 1017.8 16.8 WNW 19.7 0.0 0.8
13:09 6.4 2.5 76 1017.8 15.9 NW 19.7 0.8 0.9
13:10 6.4 2.5 76 1018.0 14.5 W 19.7 0.8 0.9
13:15 6.6 2.5 75 1017.8 19.0 NW 19.7 0.0 0.9
13:53 6.8 2.5 74 1017.8 16.8 NW 20.6 0.0 0.9
13:57 6.8 2.5 74 1017.8 15.2 NW 20.6 0.0 0.9
13:58 6.8 2.5 74 1018.0 16.8 NW 20.6 0.0 0.9
13:59 6.8 2.5 74 1017.9 17.4 NW 20.6 0.0 0.9
14:00 6.8 2.5 74 1017.8 17.4 NW 18.3 0.0 0.9
14:01 6.8 2.5 74 1017.9 17.4 NW 18.3 0.0 0.9
14:02 6.8 2.5 74 1018.0 17.4 NW 18.3 0.0 0.9
14:03 6.8 2.5 74 1017.8 17.4 NW 17.4 0.0 0.9
14:05 6.8 2.5 74 1018.0 17.4 NW 17.4 0.0 0.9
14:34 6.6 2.5 75 1018.2 13.6 W 18.3 0.0 0.9
14:45 6.8 2.5 74 1018.3 10.7 NW 17.4 0.0 0.9
14:46 6.8 2.5 74 1018.3 14.5 N 17.4 0.0 0.9
16:34 5.9 2.5 79 1018.7 9.2 W 14.5 0.0 0.9
06:06 3.2 2.6 96 1012.1 15.2 NW 19.7 0.0 0.8
06:07 3.2 2.6 96 1012.3 18.3 NW 19.7 0.0 0.8
06:08 3.2 2.6 96 1012.1 15.9 W 19.7 0.0 0.8
06:11 3.3 2.6 95 1012.2 13.6 NW 21.3 0.0 0.8
06:12 3.3 2.6 95 1012.4 13.6 SW 21.3 0.0 0.8
06:14 3.3 2.6 95 1012.4 20.6 NW 22.1 0.0 0.8
06:15 3.3 2.6 95 1012.4 19.7 NW 22.1 0.0 0.8
10:06 4.9 2.6 85 1016.1 16.8 W 16.8 0.0 0.8
10:07 4.9 2.6 85 1016.3 15.2 W 16.8 0.0 0.8
10:09 4.9 2.6 85 1016.2 14.5 S 16.8 0.0 0.8
10:10 4.9 2.6 85 1016.3 19.0 W 19.0 0.0 0.8
10:12 4.9 2.6 85 1016.2 14.5 W 19.0 0.0 0.8
10:28 5.1 2.6 84 1016.5 15.9 NW 20.6 0.0 0.8
10:42 5.4 2.6 82 1017.0 22.1 W 24.4 0.0 0.8
10:43 5.4 2.6 82 1016.9 25.9 W 25.9 0.0 0.8
10:44 5.4 2.6 82 1016.8 19.7 WNW 25.9 0.0 0.8
10:45 5.4 2.6 82 1016.8 16.8 W 25.9 0.0 0.8
10:52 5.6 2.6 81 1016.9 18.3 WNW 25.9 0.0 0.8
10:53 5.6 2.6 81 1016.8 18.3 W 19.7 0.0 0.8
10:54 5.6 2.6 81 1016.9 15.2 W 19.7 0.0 0.8
11:00 5.8 2.6 80 1016.9 14.5 NW 18.3 0.0 0.8
11:01 5.8 2.6 80 1016.9 14.5 NW 18.3 0.0 0.8
11:02 5.8 2.6 80 1017.0 14.5 NW 18.3 0.0 0.8
11:03 5.8 2.6 80 1017.0 14.5 NW 18.3 0.0 0.8
11:29 6.0 2.6 79 1017.5 11.4 W 19.0 0.0 0.8
11:31 6.1 2.6 78 1017.4 16.8 NW 19.0 0.0 0.8
11:41 6.3 2.6 77 1017.5 9.8 W 16.8 0.0 0.8
11:42 6.3 2.6 77 1017.4 12.1 NW 16.8 0.0 0.8
11:43 6.3 2.6 77 1017.4 19.7 W 19.7 0.0 0.8
11:45 6.3 2.6 77 1017.4 17.4 W 19.7 0.0 0.8
11:46 6.3 2.6 77 1017.4 13.6 W 19.7 0.0 0.8
12:10 6.7 2.6 75 1017.5 20.6 NW 20.6 0.0 0.8
12:12 6.7 2.6 75 1017.5 14.5 NW 20.6 0.0 0.8
12:46 6.9 2.6 74 1017.6 13.6 W 20.6 0.0 0.8
12:47 6.9 2.6 74 1017.8 19.7 NW 20.6 0.0 0.8
12:51 6.7 2.6 75 1017.9 6.9 NW 20.6 0.0 0.8
12:52 6.7 2.6 75 1017.8 12.1 NW 20.6 0.0 0.8
12:53 6.5 2.6 76 1017.8 15.9 W 19.7 0.0 0.8
13:03 6.1 2.6 78 1017.8 16.8 SW 19.7 0.0 0.8
13:04 6.1 2.6 78 1017.8 11.4 WNW 19.7 0.0 0.8
13:08 6.3 2.6 77 1018.0 15.9 N 19.7 0.8 0.9
13:11 6.5 2.6 76 1017.9 16.8 NW 19.0 0.8 0.9
13:12 6.5 2.6 76 1017.8 18.3 W 18.3 0.0 0.9
13:16 6.7 2.6 75 1017.7 15.9 SW 19.7 0.0 0.9
13:17 6.7 2.6 75 1018.1 11.4 W 19.7 0.0 0.9
13:18 6.7 2.6 75 1018.0 13.0 W 19.7 0.0 0.9
13:50 6.7 2.6 75 1017.9 15.2 SW 20.6 0.0 0.9
13:51 6.7 2.6 75 1017.8 15.9 NW 20.6 0.0 0.9
14:15 6.5 2.6 76 1018.0 12.1 W 17.4 0.0 0.9
14:35 6.7 2.6 75 1018.2 16.8 W 18.3 0.0 0.9
14:36 6.7 2.6 75 1018.2 15.9 W 18.3 0.0 0.9
14:37 6.7 2.6 75 1018.4 15.9 W 18.3 0.0 0.9
14:44 6.9 2.6 74 1018.4 14.5 NW 18.3 0.0 0.9
10:13 5.0 2.7 85 1016.3 15.9 W 19.0 0.0 0.8
10:30 5.2 2.7 84 1016.6 21.3 W 21.3 0.0 0.8
10:31 5.2 2.7 84 1016.6 14.5 WNW 21.3 0.0 0.8
10:37 5.4 2.7 83 1016.8 12.1 NW 21.3 0.0 0.8
10:38 5.4 2.7 83 1016.6 14.5 NW 21.3 0.0 0.8
10:39 5.4 2.7 83 1016.9 14.5 W 21.3 0.0 0.8
10:40 5.4 2.7 83 1016.6 13.0 N 16.8 0.0 0.8
10:41 5.4 2.7 83 1016.7 24.4 NW 24.4 0.0 0.8
10:55 5.7 2.7 81 1017.1 11.4 SW 18.3 0.0 0.8
11:30 6.1 2.7 79 1017.4 13.6 W 19.0 0.0 0.8
11:32 6.2 2.7 78 1017.2 15.2 W 19.0 0.0 0.8
11:33 6.2 2.7 78 1017.4 13.6 W 19.0 0.0 0.8
11:34 6.2 2.7 78 1017.6 16.8 NW 16.8 0.0 0.8
11:35 6.2 2.7 78 1017.4 15.2 W 16.8 0.0 0.8
11:36 6.2 2.7 78 1017.6 14.5 W 16.8 0.0 0.8
11:37 6.2 2.7 78 1017.4 16.8 NW 16.8 0.0 0.8
11:53 6.4 2.7 77 1017.5 15.9 NW 19.7 0.0 0.8
11:54 6.4 2.7 77 1017.4 19.0 NW 19.7 0.0 0.8
11:56 6.4 2.7 77 1017.5 14.5 W 20.6 0.0 0.8
12:05 6.6 2.7 76 1017.5 16.8 N 20.6 0.0 0.8
12:06 6.6 2.7 76 1017.4 12.1 W 18.3 0.0 0.8
12:07 6.6 2.7 76 1017.4 13.0 NW 16.8 0.0 0.8
12:50 6.8 2.7 75 1017.8 9.2 W 20.6 0.0 0.8
13:05 6.2 2.7 78 1017.9 14.5 NW 19.7 0.0 0.8
13:06 6.3 2.7 78 1017.8 17.4 SW 19.7 0.0 0.9
13:07 6.3 2.7 78 1017.9 15.2 NW 19.7 0.8 0.9
13:14 6.6 2.7 76 1017.9 19.7 NW 19.7 0.0 0.9
13:47 6.6 2.7 76 1017.8 18.3 NW 18.3 0.0 0.9
13:48 6.6 2.7 76 1017.8 15.9 W 18.3 0.0 0.9
14:16 6.6 2.7 76 1018.2 15.2 SW 16.8 0.0 0.9
14:22 6.6 2.7 76 1018.1 19.0 W 19.0 0.0 0.9
14:23 6.6 2.7 76 1018.1 13.0 W 19.0 0.0 0.9
14:24 6.6 2.7 76 1018.2 16.8 W 19.0 0.0 0.9
14:25 6.6 2.7 76 1018.1 16.8 NW 19.0 0.0 0.9
14:26 6.6 2.7 76 1018.1 15.2 NW 19.0 0.0 0.9
14:27 6.6 2.7 76 1018.3 18.3 W 19.0 0.0 0.9
14:28 6.6 2.7 76 1018.5 12.1 W 19.0 0.0 0.9
14:38 6.8 2.7 75 1018.4 14.5 NW 18.3 0.0 0.9
14:42 7.0 2.7 74 1018.3 14.5 NW 18.3 0.0 0.9
05:57 3.2 2.8 97 1012.3 18.3 SW 22.8 0.0 0.8
05:58 3.2 2.8 97 1012.1 19.0 N 22.8 0.0 0.8
05:59 3.2 2.8 97 1012.1 19.7 W 22.8 0.0 0.8
06:00 3.2 2.8 97 1012.2 19.7 W 22.8 0.0 0.8
06:01 3.2 2.8 97 1012.2 19.7 W 22.1 0.0 0.8
06:02 3.2 2.8 97 1012.1 19.7 W 22.1 0.0 0.8
06:04 3.2 2.8 97 1012.2 19.7 W 22.1 0.0 0.8
06:05 3.2 2.8 97 1012.2 19.7 W 22.1 0.0 0.8
10:32 5.3 2.8 84 1016.5 15.9 W 21.3 0.0 0.8
11:55 6.5 2.8 77 1017.3 20.6 NW 20.6 0.0 0.8
12:09 6.7 2.8 76 1017.4 17.4 W 17.4 0.0 0.8
12:48 6.9 2.8 75 1017.9 12.1 SW 20.6 0.0 0.8
12:49 6.9 2.8 75 1017.9 12.1 W 20.6 0.0 0.8
13:49 6.7 2.8 76 1017.9 20.6 NW 20.6 0.0 0.9
13:52 6.9 2.8 75 1017.9 15.2 NW 20.6 0.0 0.9
14:19 6.7 2.8 76 1018.2 9.2 W 16.8 0.0 0.9
14:21 6.7 2.8 76 1018.2 15.2 W 16.8 0.0 0.9
05:53 3.3 2.9 97 1012.0 15.9 SW 28.2 0.0 0.8
05:54 3.3 2.9 97 1012.2 15.2 NW 28.2 0.0 0.8
05:55 3.3 2.9 97 1012.0 22.1 NW 28.2 0.0 0.8
05:56 3.3 2.9 97 1012.0 19.7 W 22.8 0.0 0.8
10:33 5.4 2.9 84 1016.7 13.0 W 21.3 0.0 0.8
10:34 5.4 2.9 84 1016.7 15.2 NW 21.3 0.0 0.8
10:35 5.4 2.9 84 1016.6 15.9 W 21.3 0.0 0.8
10:36 5.4 2.9 84 1016.6 16.8 S 21.3 0.0 0.8
13:19 6.8 2.9 76 1018.0 9.2 W 19.7 0.0 0.9
13:20 6.8 2.9 76 1018.0 9.8 W 19.7 0.0 0.9
13:21 6.8 2.9 76 1018.0 13.6 W 19.7 0.0 0.9
13:43 6.6 2.9 77 1017.8 15.9 NW 22.1 0.0 0.9
13:45 6.6 2.9 77 1017.9 18.3 NW 22.1 0.0 0.9
13:46 6.6 2.9 77 1017.8 15.9 W 18.3 0.0 0.9
14:41 7.0 2.9 75 1018.4 15.2 SW 18.3 0.0 0.9
05:46 3.3 3.0 98 1011.9 19.0 NW 28.2 0.0 0.8
05:47 3.3 3.0 98 1012.0 16.8 W 28.2 0.0 0.8
05:48 3.3 3.0 98 1012.1 17.4 SW 28.2 0.0 0.8
05:49 3.3 3.0 98 1012.2 13.0 W 28.2 0.0 0.8
05:50 3.3 3.0 98 1012.2 19.0 W 28.2 0.0 0.8
05:51 3.3 3.0 98 1012.2 22.8 W 28.2 0.0 0.8
05:52 3.3 3.0 98 1012.1 17.4 W 28.2 0.0 0.8
13:22 6.9 3.0 76 1018.0 12.1 W 19.7 0.0 0.9
13:24 6.7 3.0 77 1018.0 10.7 NW 19.0 0.0 0.9
13:26 6.6 3.0 78 1017.9 10.7 N 17.4 0.0 0.9
13:39 6.6 3.0 78 1017.9 15.9 W 22.1 0.0 0.9
13:40 6.6 3.0 78 1017.9 10.7 WNW 22.1 0.0 0.9
13:41 6.6 3.0 78 1017.8 17.4 NW 22.1 0.0 0.9
13:44 6.6 3.0 78 1017.8 11.4 SW 22.1 0.0 0.9
14:18 6.7 3.0 77 1018.2 16.8 W 16.8 0.0 0.9
14:39 6.9 3.0 76 1018.3 7.6 W 18.3 0.0 0.9
14:40 6.9 3.0 76 1018.4 15.2 W 18.3 0.0 0.9
05:30 3.2 3.1 99 1011.6 12.1 W 19.7 0.0 0.8
05:31 3.2 3.1 99 1011.9 11.4 W 19.0 0.0 0.8
05:32 3.2 3.1 99 1011.7 18.3 W 19.0 0.0 0.8
05:33 3.2 3.1 99 1011.8 17.4 W 19.0 0.0 0.8
05:34 3.2 3.1 99 1011.8 15.2 E 19.0 0.0 0.8
05:35 3.2 3.1 99 1011.7 13.0 SW 19.0 0.0 0.8
05:36 3.2 3.1 99 1011.9 15.9 NE 19.0 0.0 0.8
05:37 3.2 3.1 99 1011.9 13.0 NW 19.0 0.0 0.8
05:38 3.2 3.1 99 1011.7 19.7 SW 19.7 0.0 0.8
05:39 3.2 3.1 99 1011.7 19.0 NW 19.7 0.0 0.8
05:40 3.2 3.1 99 1012.0 17.4 NW 19.7 0.0 0.8
05:41 3.2 3.1 99 1011.9 13.6 W 19.7 0.0 0.8
13:23 6.8 3.1 77 1018.0 15.2 S 19.7 0.0 0.9
13:25 6.7 3.1 78 1017.9 15.9 N 19.0 0.0 0.9
13:35 6.7 3.1 78 1017.8 15.9 W 17.4 0.0 0.9
13:36 6.7 3.1 78 1017.8 22.1 SW 22.1 0.0 0.9
13:37 6.7 3.1 78 1017.8 16.8 SW 22.1 0.0 0.9
13:38 6.7 3.1 78 1017.9 15.9 W 22.1 0.0 0.9
05:14 3.3 3.2 99 1011.5 13.0 N 20.6 0.0 0.8
05:16 3.3 3.2 99 1011.4 14.5 NW 19.7 0.0 0.8
05:18 3.3 3.2 99 1011.3 16.8 SW 17.4 0.0 0.8
05:19 3.3 3.2 99 1011.4 18.3 W 18.3 0.0 0.8
05:20 3.3 3.2 99 1011.5 19.7 W 19.7 0.0 0.8
05:21 3.3 3.2 99 1011.5 18.3 S 19.7 0.0 0.8
05:23 3.3 3.2 99 1011.5 15.2 NW 19.7 0.0 0.8
05:24 3.3 3.2 99 1011.6 15.9 W 19.7 0.0 0.8
05:25 3.3 3.2 99 1011.4 15.9 W 19.7 0.0 0.8
05:26 3.3 3.2 99 1011.7 15.2 NW 19.7 0.0 0.8
05:27 3.3 3.2 99 1011.6 18.3 NW 19.7 0.0 0.8
05:28 3.3 3.2 99 1011.7 14.5 W 19.7 0.0 0.8
05:29 3.3 3.2 99 1011.6 19.0 NW 19.7 0.0 0.8
05:42 3.3 3.2 99 1011.9 20.6 NW 20.6 0.0 0.8
05:44 3.3 3.2 99 1012.0 14.5 WNW 20.6 0.0 0.8
05:45 3.3 3.2 99 1012.2 17.4 NW 20.6 0.0 0.8
13:27 6.6 3.2 79 1017.9 13.0 NW 17.4 0.0 0.9
13:28 6.6 3.2 79 1017.8 11.4 W 17.4 0.0 0.9
05:06 3.4 3.3 99 1011.2 16.8 W 20.6 0.0 0.8
05:07 3.4 3.3 99 1011.3 19.7 SW 20.6 0.0 0.8
05:08 3.4 3.3 99 1011.2 14.5 W 20.6 0.0 0.8
05:09 3.4 3.3 99 1011.2 13.0 W 20.6 0.0 0.8
05:10 3.4 3.3 99 1011.2 16.8 NW 20.6 0.0 0.8
05:11 3.4 3.3 99 1011.4 17.4 NW 20.6 0.0 0.8
05:12 3.4 3.3 99 1011.4 12.1 W 20.6 0.0 0.8
05:13 3.4 3.3 99 1011.3 12.1 W 20.6 0.0 0.8
05:15 3.4 3.3 99 1011.4 11.4 W 20.6 0.0 0.8
05:17 3.4 3.3 99 1011.5 11.4 W 17.4 0.0 0.8
13:32 6.7 3.3 79 1017.8 11.4 WNW 17.4 0.0 0.9
04:45 3.5 3.4 99 1011.0 10.7 W 20.6 0.0 0.8
04:47 3.5 3.4 99 1011.1 18.3 W 20.6 0.0 0.8
04:48 3.5 3.4 99 1011.0 17.4 E 20.6 0.0 0.8
04:49 3.5 3.4 99 1010.9 25.1 W 25.1 0.0 0.8
04:50 3.5 3.4 99 1011.2 14.5 W 25.1 0.0 0.8
04:53 3.5 3.4 99 1011.1 17.4 S 25.1 0.0 0.8
04:58 3.5 3.4 99 1011.1 15.2 NW 25.1 0.0 0.8
05:05 3.5 3.4 99 1011.2 17.4 W 19.0 0.0 0.8
13:34 6.8 3.4 79 1017.8 15.9 W 17.4 0.0 0.9
04:24 3.6 3.5 99 1010.8 15.9 NW 20.6 0.0 0.8
04:26 3.6 3.5 99 1010.6 16.8 W 20.6 0.0 0.8
04:27 3.6 3.5 99 1010.7 21.3 W 21.3 0.0 0.8
04:28 3.6 3.5 99 1010.8 18.3 NW 21.3 0.0 0.8
04:29 3.6 3.5 99 1010.7 14.5 W 21.3 0.0 0.8
04:30 3.6 3.5 99 1010.7 20.6 W 21.3 0.0 0.8
04:31 3.6 3.5 99 1010.8 26.6 NW 26.6 0.0 0.8
04:32 3.6 3.5 99 1010.7 15.9 N 26.6 0.0 0.8
04:33 3.6 3.5 99 1010.8 16.8 E 26.6 0.0 0.8
04:34 3.6 3.5 99 1010.7 21.3 W 26.6 0.0 0.8
04:35 3.6 3.5 99 1010.9 14.5 W 26.6 0.0 0.8
04:36 3.6 3.5 99 1010.9 14.5 W 26.6 0.0 0.8
04:37 3.6 3.5 99 1010.9 15.2 W 26.6 0.0 0.8
04:38 3.6 3.5 99 1011.0 20.6 NW 26.6 0.0 0.8
04:39 3.6 3.5 99 1011.0 13.6 W 26.6 0.0 0.8
04:40 3.6 3.5 99 1010.9 11.4 W 26.6 0.0 0.8
04:41 3.6 3.5 99 1011.0 9.2 W 21.3 0.0 0.8
04:42 3.6 3.5 99 1011.0 15.9 W 21.3 0.0 0.8
04:44 3.6 3.5 99 1011.1 11.4 N 21.3 0.0 0.8
04:46 3.6 3.5 99 1011.1 14.5 W 20.6 0.0 0.8
04:51 3.6 3.5 99 1011.2 12.1 NW 25.1 0.0 0.8
04:52 3.6 3.5 99 1011.0 19.7 W 25.1 0.0 0.8
04:54 3.6 3.5 99 1011.2 13.6 NE 25.1 0.0 0.8
04:55 3.6 3.5 99 1011.2 13.0 NW 25.1 0.0 0.8
04:56 3.6 3.5 99 1011.2 13.0 NW 25.1 0.0 0.8
04:59 3.6 3.5 99 1011.1 15.2 NW 23.5 0.0 0.8
05:00 3.6 3.5 99 1011.3 15.2 NW 23.5 0.0 0.8
05:01 3.6 3.5 99 1011.4 15.2 NW 23.5 0.0 0.8
05:03 3.6 3.5 99 1011.2 15.2 NW 23.5 0.0 0.8
05:04 3.6 3.5 99 1011.2 15.2 NW 19.0 0.0 0.8
13:29 6.7 3.5 80 1018.0 8.3 NW 17.4 0.0 0.9
13:30 6.7 3.5 80 1017.7 15.9 NW 17.4 0.0 0.9
13:31 6.7 3.5 80 1017.9 16.8 NW 17.4 0.0 0.9
04:21 3.7 3.6 99 1010.7 10.7 SW 20.6 0.0 0.8
04:22 3.7 3.6 99 1010.8 12.1 NW 20.6 0.0 0.8
04:25 3.7 3.6 99 1010.6 19.0 W 20.6 0.0 0.8
04:17 3.8 3.7 99 1010.7 20.6 SW 20.6 0.0 0.8
04:18 3.8 3.7 99 1010.7 17.4 SW 20.6 0.0 0.8
04:19 3.8 3.7 99 1010.7 15.2 W 20.6 0.0 0.8
04:20 3.8 3.7 99 1010.6 15.9 NW 20.6 0.0 0.8
04:14 3.9 3.8 99 1010.6 16.8 W 20.6 0.0 0.8
04:15 3.9 3.8 99 1010.6 14.5 W 20.6 0.0 0.8
04:16 3.9 3.8 99 1010.7 10.7 NW 20.6 0.0 0.8
04:10 4.0 3.9 99 1010.6 14.5 W 20.6 0.0 0.8
04:12 4.0 3.9 99 1010.6 19.0 NW 20.6 0.0 0.8
04:13 4.0 3.9 99 1010.7 13.6 N 20.6 0.0 0.8
04:08 4.1 4.0 99 1010.7 15.9 W 19.7 0.0 0.8
04:11 4.1 4.0 99 1010.7 11.4 W 20.6 0.0 0.8
04:06 4.2 4.1 99 1010.7 8.3 W 19.7 0.0 0.8
04:07 4.2 4.1 99 1010.7 11.4 WNW 19.7 0.0 0.8
04:04 4.3 4.2 99 1010.5 19.7 SW 20.6 0.0 0.8
04:05 4.3 4.2 99 1010.6 17.4 NW 20.6 0.0 0.8
03:58 4.5 4.4 99 1010.5 17.4 NW 24.4 0.0 0.8
03:59 4.5 4.4 99 1010.5 15.9 W 24.4 0.0 0.8
04:00 4.5 4.4 99 1010.6 15.9 W 24.4 0.0 0.8
04:01 4.5 4.4 99 1010.3 15.9 W 24.4 0.0 0.8
04:02 4.5 4.4 99 1010.5 15.9 W 24.4 0.0 0.8
04:03 4.5 4.4 99 1010.5 15.9 W 20.6 0.0 0.8
03:47 4.6 4.5 99 1010.4 13.0 SW 19.7 0.0 0.8
03:49 4.6 4.5 99 1010.3 15.9 W 19.7 0.0 0.8
03:50 4.6 4.5 99 1010.3 18.3 W 19.7 0.0 0.8
03:51 4.6 4.5 99 1010.3 15.2 NW 19.7 0.0 0.8
03:52 4.6 4.5 99 1010.3 18.3 SW 24.4 0.0 0.8
03:53 4.6 4.5 99 1010.4 15.2 SW 24.4 0.0 0.8
03:54 4.6 4.5 99 1010.4 18.3 W 24.4 0.0 0.8
03:55 4.6 4.5 99 1010.4 20.6 W 24.4 0.0 0.8
03:56 4.6 4.5 99 1010.3 19.7 W 24.4 0.0 0.8
03:36 4.7 4.6 99 1010.3 14.5 W 16.8 0.0 0.8
03:37 4.7 4.6 99 1010.4 19.0 W 22.8 0.0 0.8
03:38 4.7 4.6 99 1010.3 16.8 W 22.8 0.0 0.8
03:39 4.7 4.6 99 1010.3 15.2 NW 22.8 0.0 0.8
03:40 4.7 4.6 99 1010.2 19.0 NW 22.8 0.0 0.8
03:42 4.7 4.6 99 1010.4 16.8 WNW 22.8 0.0 0.8
03:43 4.7 4.6 99 1010.2 15.2 WNW 22.8 0.0 0.8
03:44 4.7 4.6 99 1010.2 19.7 N 22.8 0.0 0.8
03:45 4.7 4.6 99 1010.3 15.9 W 22.8 0.0 0.8
03:46 4.7 4.6 99 1010.2 19.0 W 22.8 0.0 0.8
03:48 4.7 4.6 99 1010.4 11.4 NW 19.7 0.0 0.8
03:32 4.8 4.7 99 1010.3 12.1 W 17.4 0.0 0.8
03:33 4.8 4.7 99 1010.3 13.0 NW 17.4 0.0 0.8
03:34 4.8 4.7 99 1010.3 9.8 NW 16.8 0.0 0.8
03:35 4.8 4.7 99 1010.3 15.2 W 16.8 0.0 0.8
03:26 4.9 4.8 99 1010.2 16.8 W 22.8 0.0 0.8
03:28 4.9 4.8 99 1010.3 15.2 W 22.8 0.0 0.8
03:29 4.9 4.8 99 1010.4 13.6 W 22.8 0.0 0.8
03:30 4.9 4.8 99 1010.2 13.6 W 22.8 0.0 0.8
03:31 4.9 4.8 99 1010.3 15.9 W 22.8 0.0 0.8
02:55 5.0 4.9 99 1009.7 17.4 N 22.8 0.0 0.8
02:56 5.0 4.9 99 1009.7 15.9 W 21.3 0.0 0.8
02:57 5.0 4.9 99 1009.7 15.2 NW 20.6 0.0 0.8
02:58 5.0 4.9 99 1009.7 15.2 W 20.6 0.0 0.8
02:59 5.0 4.9 99 1009.9 15.2 W 20.6 0.0 0.8
03:00 5.0 4.9 99 1009.7 15.2 W 20.6 0.0 0.8
03:01 5.0 4.9 99 1009.7 16.8 NW 20.6 0.0 0.8
03:02 5.0 4.9 99 1009.7 15.9 WSW 20.6 0.0 0.8
03:03 5.0 4.9 99 1009.9 15.9 W 17.4 0.0 0.8
03:04 5.0 4.9 99 1009.9 9.2 WSW 17.4 0.0 0.8
03:06 5.0 4.9 99 1009.8 11.4 NW 16.8 0.0 0.8
03:07 5.0 4.9 99 1009.9 11.4 NW 16.8 0.0 0.8
03:08 5.0 4.9 99 1009.8 15.9 W 16.8 0.0 0.8
03:09 5.0 4.9 99 1009.9 15.9 W 16.8 0.0 0.8
03:10 5.0 4.9 99 1010.0 16.8 W 18.3 0.0 0.8
03:11 5.0 4.9 99 1009.9 13.0 W 18.3 0.0 0.8
03:12 5.0 4.9 99 1010.0 14.5 W 18.3 0.0 0.8
03:14 5.0 4.9 99 1010.1 18.3 W 18.3 0.0 0.8
03:16 5.0 4.9 99 1010.1 17.4 NW 18.3 0.0 0.8
03:17 5.0 4.9 99 1010.2 20.6 NW 20.6 0.0 0.8
03:18 5.0 4.9 99 1010.1 14.5 NW 20.6 0.0 0.8
03:19 5.0 4.9 99 1009.9 15.9 WSW 20.6 0.0 0.8
03:20 5.0 4.9 99 1010.0 13.6 NW 20.6 0.0 0.8
03:21 5.0 4.9 99 1009.9 22.8 W 22.8 0.0 0.8
03:22 5.0 4.9 99 1009.9 16.8 W 22.8 0.0 0.8
03:24 5.0 4.9 99 1010.2 17.4 W 22.8 0.0 0.8
03:25 5.0 4.9 99 1010.4 16.8 W 22.8 0.0 0.8
03:27 5.0 4.9 99 1010.2 15.2 NW 22.8 0.0 0.8
02:51 5.1 5.0 99 1009.7 15.9 WNW 22.8 0.0 0.8
02:52 5.1 5.0 99 1009.8 18.3 WSW 22.8 0.0 0.8
02:53 5.1 5.0 99 1009.6 20.6 NW 22.8 0.0 0.8
02:54 5.1 5.0 99 1009.7 17.4 WSW 22.8 0.0 0.8
03:13 5.1 5.0 99 1010.1 14.5 W 18.3 0.0 0.8
03:15 5.1 5.0 99 1010.1 12.1 NW 18.3 0.0 0.8
02:49 5.2 5.1 99 1009.8 13.0 NW 22.8 0.0 0.8
02:50 5.2 5.1 99 1009.7 14.5 NW 22.8 0.0 0.8
02:46 5.3 5.2 99 1009.7 21.3 W 25.9 0.8 0.8
02:48 5.3 5.2 99 1009.7 18.3 W 25.9 0.0 0.8
02:43 5.4 5.3 99 1009.8 13.0 W 25.9 0.8 0.8
02:44 5.4 5.3 99 1009.8 20.6 WSW 25.9 0.8 0.8
02:45 5.4 5.3 99 1009.8 22.8 NW 25.9 0.8 0.8
02:42 5.6 5.5 99 1009.8 19.7 NW 25.9 0.0 0.8
02:39 5.7 5.6 99 1009.8 21.3 W 25.9 0.0 0.8
02:40 5.7 5.6 99 1009.9 19.0 W 25.9 0.0 0.8
02:41 5.7 5.6 99 1009.9 19.0 NW 25.9 0.0 0.8
02:36 5.8 5.7 99 1009.8 7.6 WSW 25.9 0.0 0.8
02:37 5.8 5.7 99 1009.8 14.5 NW 25.9 0.0 0.8
02:38 5.8 5.7 99 1009.9 25.9 NNE 25.9 0.0 0.8
01:52 5.9 5.8 99 1009.3 10.7 WSW 17.4 0.0 0.4
02:33 5.9 5.8 99 1009.6 19.7 WSW 25.9 0.0 0.8
02:34 5.9 5.8 99 1009.6 15.9 WSW 25.9 0.0 0.8
01:48 6.0 5.9 99 1009.0 15.9 WSW 17.4 0.0 0.4
01:50 6.0 5.9 99 1008.9 11.4 W 17.4 0.0 0.4
01:51 6.0 5.9 99 1009.1 10.7 W 17.4 0.0 0.4
01:53 6.0 5.9 99 1009.3 13.0 WSW 17.4 0.8 0.5
01:54 6.0 5.9 99 1009.1 13.0 WSW 18.3 0.8 0.5
01:55 6.0 5.9 99 1009.3 20.6 WSW 20.6 1.5 0.6
01:56 6.0 5.9 99 1009.1 17.4 WSW 20.6 1.5 0.6
01:57 6.0 5.9 99 1009.2 13.6 WSW 20.6 2.3 0.6
01:58 6.0 5.9 99 1009.3 17.4 WSW 20.6 1.5 0.6
01:59 6.0 5.9 99 1009.2 15.2 W 20.6 1.5 0.6
02:00 6.0 5.9 99 1009.2 15.2 W 20.6 0.8 0.6
02:01 6.0 5.9 99 1009.2 15.2 W 20.6 0.8 0.6
02:02 6.0 5.9 99 1009.1 15.2 W 20.6 0.0 0.6
02:03 6.0 5.9 99 1009.1 13.0 WSW 20.6 0.0 0.7
02:04 6.0 5.9 99 1009.0 13.0 NW 20.6 0.8 0.7
02:05 6.0 5.9 99 1009.2 16.8 NW 18.3 0.8 0.7
02:29 6.0 5.9 99 1009.6 15.9 W 25.9 0.0 0.8
02:31 6.0 5.9 99 1009.6 15.9 NW 25.9 0.0 0.8
02:32 6.0 5.9 99 1009.4 25.9 NW 25.9 0.0 0.8
01:45 6.1 6.0 99 1009.1 13.6 W 22.8 0.8 0.4
01:46 6.1 6.0 99 1008.9 17.4 NW 22.8 0.8 0.4
01:47 6.1 6.0 99 1008.9 9.2 W 19.0 0.8 0.4
02:07 6.1 6.0 99 1009.1 18.3 WSW 18.3 0.8 0.7
02:08 6.1 6.0 99 1009.2 13.0 WSW 18.3 0.8 0.8
02:09 6.1 6.0 99 1009.0 12.1 WSW 18.3 0.8 0.8
02:11 6.1 6.0 99 1009.2 17.4 NNW 19.7 0.8 0.8
02:12 6.1 6.0 99 1009.2 15.2 WSW 22.1 0.8 0.8
02:13 6.1 6.0 99 1009.2 10.7 WSW 22.1 0.8 0.8
02:15 6.1 6.0 99 1009.2 19.7 N 22.1 0.0 0.8
02:16 6.1 6.0 99 1009.3 14.5 W 22.1 0.0 0.8
02:17 6.1 6.0 99 1009.3 11.4 W 22.1 0.0 0.8
02:18 6.1 6.0 99 1009.1 23.5 WSW 23.5 0.0 0.8
02:19 6.1 6.0 99 1009.2 12.1 WSW 23.5 0.0 0.8
02:26 6.1 6.0 99 1009.5 13.6 NW 25.9 0.0 0.8
02:27 6.1 6.0 99 1009.5 13.0 W 25.9 0.0 0.8
02:28 6.1 6.0 99 1009.7 19.0 W 25.9 0.0 0.8
01:43 6.2 6.1 99 1008.9 15.2 W 22.8 0.8 0.4
01:44 6.2 6.1 99 1008.9 12.1 WSW 22.8 0.8 0.4
02:21 6.2 6.1 99 1009.4 12.1 NW 23.5 0.0 0.8
02:22 6.2 6.1 99 1009.4 15.9 W 23.5 0.0 0.8
02:23 6.2 6.1 99 1009.4 16.8 W 25.9 0.0 0.8
02:24 6.2 6.1 99 1009.3 14.5 W 25.9 0.0 0.8
00:27 6.3 6.2 99 1008.7 9.8 W 10.7 0.0 0.0
00:28 6.3 6.2 99 1009.0 7.6 WSW 10.7 0.0 0.0
00:29 6.3 6.2 99 1009.0 7.6 WSW 10.7 0.0 0.0
00:30 6.3 6.2 99 1008.8 5.4 W 10.7 0.0 0.0
00:31 6.3 6.2 99 1009.0 8.3 WSW 10.7 0.0 0.0
00:33 6.3 6.2 99 1008.9 10.7 WSW 10.7 0.0 0.0
00:34 6.3 6.2 99 1008.7 10.7 WSW 10.7 0.0 0.0
00:35 6.3 6.2 99 1008.8 11.4 WSW 11.4 0.0 0.0
00:37 6.3 6.2 99 1008.7 9.2 WSW 11.4 0.0 0.0
00:38 6.3 6.2 99 1008.9 9.2 W 11.4 0.0 0.0
00:39 6.3 6.2 99 1008.8 9.8 WSW 11.4 0.0 0.0
00:41 6.3 6.2 99 1008.8 11.4 WSW 11.4 0.0 0.0
00:42 6.3 6.2 99 1008.9 9.8 WSW 11.4 0.0 0.0
00:52 6.3 6.2 99 1009.0 11.4 WSW 13.6 0.0 0.0
01:41 6.3 6.2 99 1009.1 13.0 WSW 22.8 0.8 0.4
01:42 6.3 6.2 99 1009.0 13.0 WSW 22.8 0.8 0.4
00:20 6.4 6.3 99 1009.0 10.7 W 11.4 0.0 0.0
00:21 6.4 6.3 99 1008.9 9.2 W 11.4 0.0 0.0
00:22 6.4 6.3 99 1008.9 8.3 WSW 11.4 0.0 0.0
00:23 6.4 6.3 99 1009.0 8.3 WSW 11.4 0.0 0.0
00:25 6.4 6.3 99 1009.0 9.2 WSW 10.7 0.0 0.0
00:44 6.4 6.3 99 1008.8 13.6 WSW 13.6 0.0 0.0
00:45 6.4 6.3 99 1009.0 10.7 WSW 13.6 0.0 0.0
00:46 6.4 6.3 99 1008.9 12.1 WSW 13.6 0.0 0.0
00:48 6.4 6.3 99 1008.9 11.4 S 13.6 0.0 0.0
00:49 6.4 6.3 99 1008.9 9.8 WSW 13.6 0.0 0.0
00:50 6.4 6.3 99 1008.8 10.7 W 13.6 0.0 0.0
00:54 6.4 6.3 99 1009.0 10.7 WSW 13.6 0.0 0.0
00:55 6.4 6.3 99 1008.9 9.2 WSW 13.0 0.0 0.0
00:59 6.4 6.3 99 1008.9 7.6 WSW 13.0 0.0 0.0
01:00 6.4 6.3 99 1008.8 7.6 WSW 13.0 0.0 0.0
01:01 6.4 6.3 99 1008.9 7.6 WSW 11.4 0.0 0.0
01:02 6.4 6.3 99 1008.8 7.6 WSW 10.7 0.0 0.0
01:04 6.4 6.3 99 1008.9 7.6 WSW 10.7 0.0 0.0
01:05 6.4 6.3 99 1008.8 11.4 WSW 11.4 0.0 0.0
01:07 6.4 6.3 99 1008.8 9.2 WSW 11.4 0.0 0.0
01:08 6.4 6.3 99 1008.8 8.3 WSW 11.4 0.0 0.0
01:09 6.4 6.3 99 1008.9 7.6 SW 11.4 0.0 0.0
01:11 6.4 6.3 99 1009.0 7.6 W 11.4 0.0 0.0
01:13 6.4 6.3 99 1008.8 10.7 WSW 11.4 0.0 0.0
01:14 6.4 6.3 99 1008.9 11.4 WSW 11.4 0.0 0.0
01:15 6.4 6.3 99 1008.9 9.8 WSW 11.4 0.0 0.0
01:16 6.4 6.3 99 1008.9 9.8 WSW 11.4 0.0 0.0
01:39 6.4 6.3 99 1009.2 15.9 WSW 22.8 2.3 0.4
01:40 6.4 6.3 99 1009.1 13.6 W 22.8 0.8 0.4
00:09 6.5 6.4 99 1008.9 9.8 WSW 12.1 0.0 0.0
00:10 6.5 6.4 99 1009.2 8.3 WSW 12.1 0.0 0.0
00:12 6.5 6.4 99 1009.1 8.3 WSW 12.1 0.0 0.0
00:13 6.5 6.4 99 1008.9 11.4 W 12.1 0.0 0.0
00:15 6.5 6.4 99 1009.0 9.8 W 12.1 0.0 0.0
00:16 6.5 6.4 99 1008.9 10.7 W 11.4 0.0 0.0
00:18 6.5 6.4 99 1009.0 9.2 W 11.4 0.0 0.0
00:57 6.5 6.4 99 1008.8 9.8 WSW 13.0 0.0 0.0
01:10 6.5 6.4 99 1008.9 7.6 W 11.4 0.0 0.0
01:12 6.5 6.4 99 1008.8 9.2 N 11.4 0.0 0.0
01:18 6.5 6.4 99 1008.9 8.3 WSW 11.4 0.0 0.0
01:19 6.5 6.4 99 1008.9 9.2 WSW 11.4 0.0 0.0
01:20 6.5 6.4 99 1008.8 9.8 WSW 11.4 0.0 0.0
01:21 6.5 6.4 99 1008.8 10.7 W 11.4 0.0 0.0
01:22 6.5 6.4 99 1008.8 11.4 WSW 12.1 0.0 0.0
01:24 6.5 6.4 99 1008.8 8.3 WSW 12.1 0.0 0.0
01:25 6.5 6.4 99 1008.7 8.3 WSW 12.1 0.0 0.0
01:26 6.5 6.4 99 1008.6 10.7 WSW 12.1 0.0 0.0
01:27 6.5 6.4 99 1008.7 7.6 WSW 12.1 0.0 0.0
01:29 6.5 6.4 99 1008.7 12.1 WSW 12.1 0.0 0.0
01:38 6.5 6.4 99 1009.0 15.9 WSW 22.8 3.0 0.4
00:06 6.6 6.5 99 1009.0 11.4 WSW 12.1 0.0 0.0
00:07 6.6 6.5 99 1009.1 11.4 WSW 12.1 0.0 0.0
01:28 6.6 6.5 99 1008.7 9.2 WSW 12.1 0.0 0.0
01:30 6.6 6.5 99 1008.7 9.8 WSW 12.1 0.0 0.0
01:31 6.6 6.5 99 1009.0 12.1 WSW 12.1 0.0 0.0
01:32 6.6 6.5 99 1009.0 21.3 WSW 21.3 0.8 0.1
01:33 6.6 6.5 99 1009.0 21.3 WSW 21.3 1.5 0.2
01:34 6.6 6.5 99 1009.1 22.1 NW 22.1 2.3 0.3
01:35 6.6 6.5 99 1009.2 17.4 WSW 22.1 3.8 0.3
01:36 6.6 6.5 99 1009.2 17.4 WSW 22.1 3.8 0.3
00:00 6.7 6.6 99 1009.0 7.6 WSW 13.6 0.0 0.0
00:02 6.7 6.6 99 1009.1 7.6 WSW 11.4 0.0 0.0
00:03 6.7 6.6 99 1009.0 7.6 WSW 11.4 0.0 0.0
00:04 6.7 6.6 99 1009.0 7.6 WSW 11.4 0.0 0.0

UK - WEATHER STATION TOPSITES - UK World Weather Websites

This is a private weather station, never base important decisions or events on data from this weather station. Although every effort has been made to make the data as accurate as possible it does not meet MetOffice standards. It is proved as a guide of local weather conditions. We accept no liability for any loss which may arise from use of the data.

Copyright © Carnkie Weather 2009 - 2018.